CW9600 Weather Reports


Display with metric or nautical units.
time (UTC)temp
F
wind
direction
speed
MPH
gust
MPH
rain 1hr
in
rain 24hr
in
rain mn
in
humidity
%
barometer
mb
20260904040302 59 252 6.0 9.0 0.02 0.29 0.28 96
20260904040202 59 250 6.0 9.0 0.02 0.29 0.28 96
20260904040002 59 247 6.0 9.0 0.02 0.29 0.28 96
20260904035903 59 246 6.0 9.0 0.02 0.29 0.28 96
20260904035803 59 245 7.0 9.0 0.02 0.29 0.28 96
20260904035704 59 243 7.0 10.0 0.02 0.29 0.28 96
20260904035604 59 242 7.0 11.0 0.02 0.29 0.28 96
20260904035502 59 239 7.0 11.0 0.02 0.29 0.28 96
20260904035402 59 237 7.0 11.0 0.02 0.29 0.28 96
20260904035305 59 236 8.0 11.0 0.02 0.29 0.28 96
20260904035202 59 236 8.0 11.0 0.02 0.29 0.28 96
20260904035102 59 236 8.0 11.0 0.03 0.29 0.28 96
20260904035024 59 236 8.0 11.0 0.03 0.29 0.28 96
20260904034902 59 236 8.0 11.0 0.02 0.28 0.28 96
20260904034802 59 235 7.0 11.0 0.02 0.28 0.28 96
20260904034723 59 236 7.0 11.0 0.03 0.28 0.28 96
20260904034603 59 236 7.0 11.0 0.03 0.28 0.28 96
20260904034503 59 238 7.0 11.0 0.03 0.28 0.28 96
20260904034403 59 240 7.0 11.0 0.03 0.28 0.28 96
20260904034302 59 241 6.0 11.0 0.03 0.28 0.28 96
20260904034202 59 241 6.0 11.0 0.03 0.28 0.28 96
20260904034102 59 243 6.0 9.0 0.03 0.28 0.28 96
20260904034023 59 243 6.0 9.0 0.04 0.28 0.28 96
20260904033902 59 246 6.0 9.0 0.04 0.28 0.28 96
20260904033802 59 247 6.0 9.0 0.04 0.28 0.28 96
20260904033723 59 247 6.0 9.0 0.04 0.28 0.28 96
20260904033602 59 246 7.0 9.0 0.04 0.28 0.28 96
20260904033503 59 245 7.0 9.0 0.04 0.28 0.28 96
20260904033402 59 244 7.0 9.0 0.04 0.28 0.28 96
20260904033302 59 244 7.0 9.0 0.04 0.28 0.28 96
20260904033203 59 243 7.0 9.0 0.04 0.28 0.28 96
20260904033102 59 242 7.0 9.0 0.04 0.28 0.28 96
20260904033023 59 242 7.0 9.0 0.04 0.28 0.28 96
20260904032902 59 240 7.0 9.0 0.04 0.28 0.28 96
20260904032823 59 239 7.0 9.0 0.04 0.28 0.28 96
20260904032702 59 238 7.0 9.0 0.04 0.28 0.28 96
20260904032603 59 238 7.0 9.0 0.04 0.28 0.28 96
20260904032503 59 238 7.0 9.0 0.04 0.28 0.28 96
20260904032402 59 239 7.0 10.0 0.05 0.28 0.28 96
20260904032305 59 239 7.0 10.0 0.05 0.28 0.28 96
20260904032202 59 239 7.0 10.0 0.05 0.28 0.28 96
20260904032102 59 240 7.0 10.0 0.05 0.28 0.28 96
20260904032002 59 241 7.0 10.0 0.06 0.28 0.28 96
20260904031902 59 240 7.0 10.0 0.06 0.28 0.28 95
20260904031802 59 240 7.0 10.0 0.06 0.28 0.28 95
20260904031702 59 240 7.0 10.0 0.06 0.28 0.28 95
20260904031602 59 240 8.0 10.0 0.06 0.28 0.28 95
20260904031502 59 241 7.0 10.0 0.06 0.28 0.28 95
20260904031402 59 242 7.0 10.0 0.06 0.28 0.28 95
20260904031302 59 243 7.0 10.0 0.06 0.28 0.28 95
20260904031223 59 244 7.0 10.0 0.06 0.28 0.28 95
20260904031102 59 245 7.0 10.0 0.06 0.28 0.27 96
20260904031002 59 244 8.0 10.0 0.06 0.28 0.27 96
20260904030903 59 245 8.0 10.0 0.06 0.28 0.27 96
20260904030802 59 245 8.0 11.0 0.06 0.28 0.27 96
20260904030703 59 244 8.0 11.0 0.07 0.28 0.27 96
20260904030602 59 244 8.0 11.0 0.07 0.28 0.27 95
20260904030502 59 243 8.0 11.0 0.07 0.28 0.27 96
20260904030423 59 242 8.0 11.0 0.08 0.28 0.27 96
20260904030323 59 239 8.0 12.0 0.08 0.28 0.27 95
20260904030202 59 237 9.0 12.0 0.08 0.28 0.27 95
20260904030002 59 237 9.0 12.0 0.09 0.28 0.27 95
20260904025902 59 237 9.0 12.0 0.09 0.28 0.27 95
20260904025802 59 238 9.0 12.0 0.09 0.28 0.27 95
20260904025702 59 239 9.0 13.0 0.09 0.28 0.27 95
20260904025623 59 240 9.0 13.0 0.09 0.27 0.26 95
20260904025523 59 240 9.0 13.0 0.09 0.27 0.26 95
20260904025424 59 241 9.0 13.0 0.09 0.27 0.26 95
20260904025305 59 242 9.0 13.0 0.10 0.27 0.26 95
20260904025203 59 242 9.0 14.0 0.10 0.27 0.26 95
20260904025102 59 242 9.0 14.0 0.09 0.26 0.25 95
20260904025002 59 242 9.0 14.0 0.10 0.26 0.25 95
20260904024902 59 242 9.0 14.0 0.10 0.26 0.25 95
20260904024823 59 241 9.0 14.0 0.10 0.26 0.25 95
20260904024702 59 240 9.0 14.0 0.10 0.25 0.24 95
20260904024603 59 240 9.0 14.0 0.10 0.25 0.24 95
20260904024502 59 239 9.0 14.0 0.11 0.25 0.24 95
20260904024402 59 236 9.0 14.0 0.11 0.25 0.24 95
20260904024302 59 236 8.0 14.0 0.12 0.25 0.24 95
20260904024202 59 235 8.0 13.0 0.12 0.25 0.24 95
20260904024102 59 234 9.0 13.0 0.12 0.25 0.24 95
20260904024002 59 232 9.0 13.0 0.12 0.24 0.24 95
20260904023903 59 231 9.0 13.0 0.12 0.24 0.24 95
20260904023803 59 230 9.0 13.0 0.12 0.24 0.24 95
20260904023723 59 230 9.0 13.0 0.13 0.24 0.24 95
20260904023602 59 229 9.0 13.0 0.13 0.24 0.24 95
20260904023502 59 229 9.0 13.0 0.13 0.24 0.24 95
20260904023423 59 230 9.0 13.0 0.13 0.24 0.24 95
20260904023302 59 230 10.0 14.0 0.13 0.24 0.24 95
20260904023203 59 230 10.0 14.0 0.13 0.24 0.24 95
20260904023102 59 229 10.0 14.0 0.13 0.24 0.24 95
20260904023002 59 229 10.0 14.0 0.13 0.24 0.24 95
20260904022903 59 228 11.0 15.0 0.13 0.24 0.24 95
20260904022824 59 227 11.0 15.0 0.14 0.24 0.24 95
20260904022702 59 226 11.0 15.0 0.14 0.24 0.24 95
20260904022602 59 226 11.0 15.0 0.14 0.24 0.24 95
20260904022502 59 225 11.0 15.0 0.15 0.24 0.24 95
20260904022402 59 223 11.0 15.0 0.14 0.24 0.23 95
20260904022305 59 222 11.0 15.0 0.14 0.24 0.23 95
20260904022223 59 222 11.0 18.0 0.15 0.24 0.23 95
20260904022102 59 221 12.0 18.0 0.15 0.24 0.23 94
20260904022003 59 221 12.0 18.0 0.14 0.23 0.22 94
20260904021924 59 221 12.0 18.0 0.14 0.23 0.22 94
20260904021803 59 220 13.0 18.0 0.15 0.23 0.22 94
20260904021702 59 219 13.0 18.0 0.14 0.22 0.21 94
20260904021603 59 218 14.0 18.0 0.14 0.22 0.21 94
20260904021503 59 218 14.0 18.0 0.14 0.22 0.21 94
20260904021402 59 217 14.0 18.0 0.14 0.22 0.21 94
20260904021302 59 218 14.0 18.0 0.14 0.22 0.21 94
20260904021202 59 217 14.0 18.0 0.15 0.22 0.21 94
20260904021123 59 217 14.0 18.0 0.14 0.21 0.20 94
20260904021003 59 217 13.0 18.0 0.14 0.21 0.20 94
20260904020903 59 218 13.0 18.0 0.14 0.21 0.20 94
20260904020802 59 218 13.0 18.0 0.14 0.21 0.20 94
20260904020703 59 219 13.0 18.0 0.13 0.20 0.20 94
20260904020602 59 220 12.0 18.0 0.13 0.20 0.20 94
20260904020502 59 221 12.0 18.0 0.13 0.20 0.20 94
20260904020402 59 221 12.0 18.0 0.13 0.20 0.19 94
20260904020302 59 223 12.0 18.0 0.13 0.20 0.19 94
20260904020202 60 223 13.0 19.0 0.13 0.20 0.19 94
20260904020123 60 223 13.0 19.0 0.13 0.19 0.18 94
20260904020002 60 223 13.0 19.0 0.13 0.19 0.18 94
20260904015903 60 223 13.0 19.0 0.13 0.18 0.18 94
20260904015803 60 224 13.0 19.0 0.13 0.18 0.17 94
20260904015702 60 225 13.0 19.0 0.13 0.18 0.17 94
20260904015602 60 225 13.0 19.0 0.13 0.17 0.17 94
20260904015524 60 226 13.0 19.0 0.13 0.17 0.17 94
20260904015402 60 226 13.0 19.0 0.13 0.17 0.17 94
20260904015306 60 226 12.0 19.0 0.12 0.17 0.17 94
20260904015203 60 227 12.0 18.0 0.12 0.17 0.16 94
20260904015102 60 228 12.0 18.0 0.12 0.17 0.16 94
20260904015023 60 230 12.0 18.0 0.11 0.16 0.16 94
20260904014903 60 231 12.0 18.0 0.11 0.16 0.15 93
20260904014802 60 231 12.0 18.0 0.11 0.16 0.15 93
20260904014723 60 231 12.0 18.0 0.10 0.15 0.14 93
20260904014603 60 232 12.0 18.0 0.10 0.15 0.14 93
20260904014502 60 231 12.0 18.0 0.09 0.14 0.13 93
20260904014402 60 231 12.0 18.0 0.09 0.14 0.13 93
20260904014302 60 231 13.0 18.0 0.09 0.13 0.13 93
20260904014202 60 231 13.0 18.0 0.09 0.13 0.13 93
20260904014123 60 230 13.0 18.0 0.09 0.13 0.13 93
20260904014003 60 228 13.0 18.0 0.08 0.13 0.12 93
20260904013903 60 228 13.0 18.0 0.08 0.13 0.12 93
20260904013823 60 227 13.0 16.0 0.08 0.13 0.12 93
20260904013702 60 227 13.0 16.0 0.07 0.12 0.11 93
20260904013603 60 226 13.0 16.0 0.07 0.12 0.11 93
20260904013504 60 226 13.0 19.0 0.07 0.12 0.11 93
20260904013403 60 225 13.0 19.0 0.07 0.12 0.11 93
20260904013302 60 225 13.0 19.0 0.06 0.11 0.10 93
20260904013203 60 225 13.0 19.0 0.06 0.11 0.10 93
20260904013123 60 225 13.0 19.0 0.06 0.11 0.10 93
20260904013003 60 225 13.0 19.0 0.06 0.11 0.10 93
20260904012902 60 225 14.0 19.0 0.07 0.11 0.10 93
20260904012803 60 225 14.0 20.0 0.06 0.10 0.09 93
20260904012702 60 225 14.0 20.0 0.06 0.10 0.09 93
20260904012602 60 224 13.0 20.0 0.06 0.10 0.09 93
20260904012524 60 224 13.0 20.0 0.06 0.09 0.09 93
20260904012403 60 223 14.0 20.0 0.06 0.09 0.09 93
20260904012306 60 222 14.0 20.0 0.06 0.09 0.09 93
20260904012223 60 221 14.0 20.0 0.05 0.09 0.08 93
20260904012103 60 220 14.0 20.0 0.05 0.09 0.08 93
20260904012025 60 220 14.0 20.0 0.05 0.09 0.08 93
20260904011902 60 219 13.0 20.0 0.05 0.09 0.08 93
20260904011802 60 219 13.0 19.0 0.04 0.08 0.07 93
20260904011703 60 218 14.0 19.0 0.04 0.08 0.07 93
20260904011602 60 218 14.0 19.0 0.04 0.08 0.07 93
20260904011502 60 218 14.0 19.0 0.04 0.08 0.07 93
20260904011402 60 218 14.0 19.0 0.04 0.08 0.07 93
20260904011302 60 217 14.0 19.0 0.04 0.08 0.07 93
20260904011202 60 217 14.0 19.0 0.03 0.07 0.06 93
20260904011102 60 217 14.0 19.0 0.03 0.07 0.06 93
20260904011003 60 217 15.0 24.0 0.04 0.07 0.06 93
20260904010924 60 217 15.0 24.0 0.04 0.07 0.06 93
20260904010804 60 216 15.0 24.0 0.04 0.07 0.06 93
20260904010703 60 216 15.0 24.0 0.04 0.07 0.06 93
20260904010603 60 217 15.0 24.0 0.04 0.07 0.06 93
20260904010502 60 217 15.0 24.0 0.04 0.07 0.06 93
20260904010402 60 217 15.0 24.0 0.03 0.06 0.06 93
20260904010302 60 218 14.0 24.0 0.03 0.06 0.06 93
20260904010202 60 219 14.0 24.0 0.03 0.06 0.06 93
20260904010002 60 220 14.0 21.0 0.03 0.06 0.06 93
20260904005903 60 220 14.0 21.0 0.02 0.06 0.06 92
20260904005802 60 221 13.0 21.0 0.03 0.06 0.05 92
20260904005702 60 221 13.0 19.0 0.03 0.06 0.05 92
20260904005603 60 222 13.0 19.0 0.02 0.05 0.05 92
20260904005503 60 222 13.0 19.0 0.02 0.05 0.04 92
20260904005402 60 223 13.0 19.0 0.02 0.05 0.04 92
20260904005306 60 223 13.0 19.0 0.02 0.05 0.04 92
20260904005202 60 223 13.0 19.0 0.02 0.05 0.04 92
20260904005103 60 222 13.0 16.0 0.02 0.05 0.04 92
20260904005003 60 222 13.0 16.0 0.02 0.05 0.04 92
20260904004903 60 221 13.0 16.0 0.02 0.05 0.04 92
20260904004823 60 221 13.0 16.0 0.02 0.05 0.04 92
20260904004703 60 220 13.0 16.0 0.02 0.05 0.04 92
20260904004602 60 219 13.0 16.0 0.02 0.05 0.04 92
20260904004502 60 218 12.0 16.0 0.02 0.05 0.04 92
20260904004403 60 217 12.0 16.0 0.02 0.05 0.04 92
20260904004303 60 216 12.0 16.0 0.02 0.05 0.04 92
20260904004203 60 215 11.0 16.0 0.02 0.05 0.04 92
20260904004103 60 216 11.0 15.0 0.03 0.05 0.04 92
20260904004002 60 215 11.0 15.0 0.03 0.05 0.04 92
20260904003903 60 216 10.0 15.0 0.03 0.05 0.04 92
20260904003802 60 216 10.0 15.0 0.03 0.05 0.04 92
20260904003703 60 216 10.0 15.0 0.03 0.05 0.04 92
20260904003624 60 217 10.0 15.0 0.03 0.05 0.04 92
20260904003503 60 218 9.0 13.0 0.03 0.05 0.04 92
20260904003403 60 220 9.0 13.0 0.03 0.05 0.04 92
20260904003302 60 221 9.0 12.0 0.03 0.05 0.04 92
20260904003203 60 222 9.0 12.0 0.03 0.05 0.04 92
20260904003123 60 222 9.0 12.0 0.03 0.05 0.04 92
20260904003002 60 224 9.0 12.0 0.03 0.05 0.04 92
20260904002902 60 225 9.0 12.0 0.02 0.04 0.03 92
20260904002803 60 226 9.0 12.0 0.02 0.04 0.03 92
20260904002724 60 227 9.0 12.0 0.02 0.04 0.03 92
20260904002623 60 228 9.0 12.0 0.02 0.04 0.03 92
20260904002503 60 230 9.0 12.0 0.02 0.04 0.03 92
20260904002402 60 230 9.0 12.0 0.02 0.04 0.03 92
20260904002306 60 231 9.0 12.0 0.02 0.04 0.03 92
20260904002203 60 232 9.0 12.0 0.02 0.04 0.03 92
20260904002102 60 233 9.0 12.0 0.02 0.04 0.03 92
20260904002023 60 233 9.0 12.0 0.03 0.04 0.03 92
20260904001903 60 234 9.0 12.0 0.03 0.04 0.03 92
20260904001802 60 234 9.0 11.0 0.03 0.04 0.03 92
20260904001703 60 234 9.0 11.0 0.03 0.04 0.03 91
20260904001625 60 234 9.0 11.0 0.03 0.04 0.03 91
20260904001503 60 235 9.0 12.0 0.03 0.04 0.03 91
20260904001404 60 235 9.0 13.0 0.03 0.04 0.03 91
20260904001302 60 235 9.0 13.0 0.03 0.04 0.03 91
20260904001202 60 236 9.0 13.0 0.03 0.04 0.03 91
20260904001124 60 236 9.0 13.0 0.03 0.04 0.03 91
20260904001003 60 238 9.0 13.0 0.02 0.03 0.02 91
20260904000903 60 238 9.0 13.0 0.02 0.03 0.02 91
20260904000803 60 238 9.0 13.0 0.02 0.03 0.02 91
20260904000703 60 238 9.0 13.0 0.02 0.03 0.02 91
20260904000602 60 238 10.0 13.0 0.02 0.03 0.02 91
20260904000525 60 238 10.0 13.0 0.02 0.03 0.02 91
20260904000403 60 238 9.0 12.0 0.02 0.03 0.02 91
20260904000325 60 239 9.0 13.0 0.02 0.03 0.02 91
20260904000204 60 239 9.0 13.0 0.02 0.03 0.02 90
20260904000003 60 240 10.0 14.0 0.02 0.03 0.02 90
20260903235904 60 240 10.0 14.0 0.02 0.03 0.02 90
20260903235802 60 240 10.0 14.0 0.02 0.02 0.02 90
20260903235702 60 241 10.0 14.0 0.02 0.02 0.02 90
20260903235602 60 241 10.0 14.0 0.02 0.02 0.02 90
20260903235523 60 241 10.0 14.0 0.02 0.02 0.02 90
20260903235402 60 241 10.0 14.0 0.02 0.02 0.02 90
20260903235305 60 241 10.0 14.0 0.02 0.02 0.02 90
20260903235203 60 240 10.0 14.0 0.02 0.02 0.02 90
20260903235102 60 239 10.0 14.0 0.02 0.02 0.02 90
20260903235003 60 238 10.0 14.0 0.02 0.02 0.02 90
20260903234903 60 238 10.0 14.0 0.02 0.02 0.02 90
20260903234803 61 237 10.0 14.0 0.02 0.02 0.02 90
20260903234702 60 236 10.0 14.0 0.02 0.02 0.02 90
20260903234603 61 235 10.0 14.0 0.02 0.02 0.02 90
20260903234503 61 235 10.0 14.0 0.02 0.02 0.02 90
20260903234423 61 235 10.0 14.0 0.02 0.02 0.02 90
20260903234304 61 234 9.0 14.0 0.02 0.02 0.02 89
20260903234202 61 233 9.0 14.0 0.02 0.02 0.02 89
20260903234103 61 233 9.0 13.0 0.02 0.02 0.01 89
20260903234003 61 233 9.0 13.0 0.02 0.02 0.01 89
20260903233902 61 232 9.0 13.0 0.02 0.02 0.01 89
20260903233824 61 233 9.0 13.0 0.02 0.02 0.01 89
20260903233702 61 234 9.0 13.0 0.02 0.02 0.01 89
20260903233602 61 235 9.0 12.0 0.02 0.02 0.01 89
20260903233502 61 235 9.0 12.0 0.02 0.02 0.01 89
20260903233402 61 235 9.0 12.0 0.02 0.02 0.01 89
20260903233303 61 235 9.0 12.0 0.02 0.02 0.01 89
20260903233223 61 235 9.0 12.0 0.02 0.02 0.01 89
20260903233103 61 236 9.0 12.0 0.02 0.02 0.01 88
20260903233002 61 236 9.0 12.0 0.02 0.02 0.01 88
20260903232902 61 236 9.0 12.0 0.02 0.02 0.01 88
20260903232802 61 236 9.0 11.0 0.02 0.02 0.01 88
20260903232702 61 235 9.0 11.0 0.02 0.02 0.01 88
20260903232602 61 235 9.0 12.0 0.02 0.02 0.01 88
20260903232502 61 234 9.0 12.0 0.02 0.02 0.01 88
20260903232403 61 234 9.0 12.0 0.02 0.02 0.01 88
20260903232305 61 234 9.0 13.0 0.02 0.02 0.01 88
20260903232202 61 234 9.0 13.0 0.02 0.02 0.01 88
20260903232102 61 233 9.0 13.0 0.02 0.02 0.01 87
20260903232002 61 233 9.0 13.0 0.01 0.01 0.00 87
20260903231903 61 233 9.0 13.0 0.01 0.01 0.00 87
20260903231802 61 233 9.0 13.0 0.01 0.01 0.00 87
20260903231702 61 232 9.0 13.0 0.01 0.01 0.00 87
20260903231625 61 232 9.0 13.0 0.01 0.01 0.00 87
20260903231503 61 232 9.0 13.0 0.01 0.01 0.00 87
20260903231424 61 232 9.0 13.0 0.01 0.01 0.00 87
20260903231303 61 232 9.0 12.0 0.01 0.01 0.00 87
20260903231203 61 232 9.0 11.0 0.01 0.01 0.00 87
20260903231103 61 232 9.0 11.0 0.01 0.01 0.00 87
20260903231002 61 232 8.0 11.0 0.01 0.01 0.00 87
20260903230902 61 232 8.0 11.0 0.01 0.01 0.00 87
20260903230803 61 232 8.0 11.0 0.01 0.01 0.00 87
20260903230702 61 232 8.0 12.0 0.01 0.01 0.00 86
20260903230603 61 233 9.0 12.0 0.01 0.01 0.00 86
20260903230502 61 233 9.0 12.0 0.01 0.01 0.00 86
20260903230402 61 233 9.0 12.0 0.01 0.01 0.00 86
20260903230302 61 234 9.0 12.0 0.01 0.01 0.00 86
20260903230202 62 234 9.0 12.0 0.01 0.01 0.00 86
20260903230003 62 234 9.0 12.0 0.01 0.01 0.00 85
20260903225904 62 234 9.0 12.0 0.01 0.01 0.01 85
20260903225824 62 234 9.0 12.0 0.01 0.01 0.01 85
20260903225702 62 233 9.0 11.0 0.01 0.01 0.01 85
20260903225603 62 233 9.0 11.0 0.01 0.01 0.01 84
20260903225502 62 233 9.0 11.0 0.00 0.00 0.00 84
20260903225404 62 233 9.0 11.0 0.00 0.00 0.00 84
20260903225324 62 233 9.0 11.0 0.00 0.00 0.00 84
20260903225203 62 233 9.0 11.0 0.00 0.00 0.00 84
20260903225102 62 232 9.0 11.0 0.00 0.00 0.00 84
20260903225003 62 233 9.0 11.0 0.00 0.00 0.00 84
20260903224924 62 232 9.0 11.0 0.00 0.00 0.00 84
20260903224802 62 233 9.0 11.0 0.00 0.00 0.00 84
20260903224703 62 234 8.0 11.0 0.00 0.00 0.00 84
20260903224624 62 235 8.0 11.0 0.00 0.00 0.00 84
20260903224504 62 236 8.0 11.0 0.00 0.00 0.00 83
20260903224423 62 236 8.0 11.0 0.00 0.00 0.00 83
20260903224303 62 237 9.0 12.0 0.00 0.00 0.00 83
20260903224203 62 237 9.0 12.0 0.00 0.00 0.00 83
20260903224103 62 237 9.0 12.0 0.00 0.00 0.00 83
20260903224003 62 236 9.0 12.0 0.00 0.00 0.00 83
20260903223923 62 236 9.0 12.0 0.00 0.00 0.00 83
20260903223802 62 235 9.0 12.0 0.00 0.00 0.00 83
20260903223702 62 235 9.0 12.0 0.00 0.00 0.00 83
20260903223602 62 235 9.0 12.0 0.00 0.00 0.00 83
20260903223503 62 234 9.0 12.0 0.00 0.00 0.00 83
20260903223402 62 233 9.0 12.0 0.00 0.00 0.00 83
20260903223302 62 233 9.0 12.0 0.00 0.00 0.00 83
20260903223203 62 233 9.0 12.0 0.00 0.00 0.00 84
20260903223103 62 232 8.0 12.0 0.00 0.00 0.00 84
20260903223003 62 233 8.0 12.0 0.00 0.00 0.00 84
20260903222902 62 232 8.0 12.0 0.00 0.00 0.00 84
20260903222803 62 231 8.0 12.0 0.00 0.00 0.00 84
20260903222702 62 231 8.0 12.0 0.00 0.00 0.00 84
20260903222602 62 229 8.0 11.0 0.00 0.00 0.00 84
20260903222503 62 229 8.0 10.0 0.00 0.00 0.00 84
20260903222402 62 229 8.0 10.0 0.00 0.00 0.00 84
20260903222305 62 228 8.0 10.0 0.00 0.00 0.00 84
20260903222203 62 228 7.0 10.0 0.00 0.00 0.00 84
20260903222103 62 229 8.0 10.0 0.00 0.00 0.00 84
20260903222003 62 230 8.0 10.0 0.00 0.00 0.00 83
20260903221902 62 231 8.0 10.0 0.00 0.00 0.00 83
20260903221802 62 232 8.0 10.0 0.00 0.00 0.00 83
20260903221724 62 233 8.0 10.0 0.00 0.00 0.00 83
20260903221603 62 235 8.0 10.0 0.00 0.00 0.00 82
20260903221502 62 236 8.0 10.0 0.00 0.00 0.00 83
20260903221403 63 238 8.0 10.0 0.00 0.00 0.00 83
20260903221303 63 239 8.0 10.0 0.00 0.00 0.00 82
20260903221223 63 240 8.0 10.0 0.00 0.00 0.00 82
20260903221103 63 240 8.0 10.0 0.00 0.00 0.00 82
20260903221003 63 241 8.0 11.0 0.00 0.00 0.00 82
20260903220903 63 241 8.0 12.0 0.00 0.00 0.00 82
20260903220802 63 241 8.0 12.0 0.00 0.00 0.00 82
20260903220703 63 241 8.0 12.0 0.00 0.00 0.00 82
20260903220604 63 241 9.0 12.0 0.00 0.00 0.00 82
20260903220503 63 241 9.0 13.0 0.00 0.00 0.00 82
20260903220403 63 241 9.0 13.0 0.00 0.00 0.00 82
20260903220302 63 241 9.0 13.0 0.00 0.00 0.00 82
20260903220202 63 240 9.0 13.0 0.00 0.00 0.00 82
20260903220002 63 239 9.0 13.0 0.00 0.00 0.00 82
20260903215903 63 239 9.0 13.0 0.00 0.00 0.00 82
20260903215803 63 238 9.0 13.0 0.00 0.00 0.00 82
20260903215703 63 238 9.0 13.0 0.00 0.00 0.00 82
20260903215623 63 238 9.0 13.0 0.00 0.00 0.00 82
20260903215502 63 237 9.0 13.0 0.00 0.00 0.00 82
20260903215403 63 237 9.0 13.0 0.00 0.00 0.00 82
20260903215306 63 236 9.0 13.0 0.00 0.00 0.00 82
20260903215202 63 236 9.0 13.0 0.00 0.00 0.00 82
20260903215103 63 236 9.0 13.0 0.00 0.00 0.00 82
20260903215003 63 236 9.0 12.0 0.00 0.00 0.00 82
20260903214903 63 236 9.0 12.0 0.00 0.00 0.00 82
20260903214823 63 235 9.0 12.0 0.00 0.00 0.00 82
20260903214703 63 234 9.0 13.0 0.00 0.00 0.00 82
20260903214602 63 233 9.0 13.0 0.00 0.00 0.00 82
20260903214503 63 232 9.0 13.0 0.00 0.00 0.00 81
20260903214404 63 231 9.0 13.0 0.00 0.00 0.00 81
20260903214303 63 230 9.0 13.0 0.00 0.00 0.00 81
20260903214202 64 229 9.0 13.0 0.00 0.00 0.00 81
20260903214103 64 227 9.0 13.0 0.00 0.00 0.00 81
20260903214002 64 227 9.0 13.0 0.00 0.00 0.00 81
20260903213903 64 226 9.0 13.0 0.00 0.00 0.00 81
20260903213824 64 226 9.0 13.0 0.00 0.00 0.00 81
20260903213702 64 226 9.0 13.0 0.00 0.00 0.00 81
20260903213623 64 226 9.0 13.0 0.00 0.00 0.00 81
20260903213524 64 227 9.0 13.0 0.00 0.00 0.00 81
20260903213403 64 227 9.0 12.0 0.00 0.00 0.00 81
20260903213303 64 229 9.0 13.0 0.00 0.00 0.00 80
20260903213202 64 229 9.0 13.0 0.00 0.00 0.00 80
20260903213102 64 230 9.0 13.0 0.00 0.00 0.00 80
20260903213003 64 231 9.0 13.0 0.00 0.00 0.00 80
20260903212924 64 231 9.0 13.0 0.00 0.00 0.00 80
20260903212824 64 231 10.0 13.0 0.00 0.00 0.00 79
20260903212703 65 231 10.0 13.0 0.00 0.00 0.00 79
20260903212623 65 231 10.0 13.0 0.00 0.00 0.00 79
20260903212502 65 231 10.0 13.0 0.00 0.00 0.00 78
20260903212403 65 231 9.0 13.0 0.00 0.00 0.00 78
20260903212323 65 230 9.0 13.0 0.00 0.00 0.00 78
20260903212202 65 229 9.0 13.0 0.00 0.00 0.00 78
20260903212103 65 229 9.0 13.0 0.00 0.00 0.00 78
20260903212002 65 228 9.0 13.0 0.00 0.00 0.00 78
20260903211902 65 227 9.0 13.0 0.00 0.00 0.00 78
20260903211802 65 227 9.0 13.0 0.00 0.00 0.00 78
20260903211703 65 227 9.0 13.0 0.00 0.00 0.00 78
20260903211623 65 226 9.0 13.0 0.00 0.00 0.00 78
20260903211502 65 224 9.0 12.0 0.00 0.00 0.00 78
20260903211402 65 224 9.0 12.0 0.00 0.00 0.00 78
20260903211302 65 223 9.0 11.0 0.00 0.00 0.00 78
20260903211223 65 222 9.0 11.0 0.00 0.00 0.00 78
20260903211102 65 221 9.0 11.0 0.00 0.00 0.00 77
20260903211003 65 221 9.0 11.0 0.00 0.00 0.00 77
20260903210903 65 220 9.0 11.0 0.00 0.00 0.00 77
20260903210824 65 220 9.0 11.0 0.00 0.00 0.00 77
20260903210702 66 220 9.0 12.0 0.00 0.00 0.00 77
20260903210602 66 221 9.0 12.0 0.00 0.00 0.00 77
20260903210503 66 221 9.0 12.0 0.00 0.00 0.00 77
20260903210404 66 221 9.0 12.0 0.00 0.00 0.00 76
20260903210303 66 222 9.0 12.0 0.00 0.00 0.00 76
20260903210202 66 222 9.0 12.0 0.00 0.00 0.00 76
20260903210003 66 222 9.0 12.0 0.00 0.00 0.00 76
20260903205923 66 222 9.0 12.0 0.00 0.00 0.00 76
20260903205803 66 223 9.0 13.0 0.00 0.00 0.00 76
20260903205703 66 221 9.0 13.0 0.00 0.00 0.00 76
20260903205602 66 220 9.0 13.0 0.00 0.00 0.00 77
20260903205523 66 220 9.0 13.0 0.00 0.00 0.00 77
20260903205402 66 220 9.0 13.0 0.00 0.00 0.00 77
20260903205306 66 220 9.0 13.0 0.00 0.00 0.00 77
20260903205203 66 220 9.0 13.0 0.00 0.00 0.00 77
20260903205103 66 220 9.0 13.0 0.00 0.00 0.00 77
20260903205003 66 219 9.0 13.0 0.00 0.00 0.00 77
20260903204902 66 218 8.0 13.0 0.00 0.00 0.00 77
20260903204803 66 217 8.0 11.0 0.00 0.00 0.00 77
20260903204703 66 216 8.0 11.0 0.00 0.00 0.00 77
20260903204602 66 216 8.0 11.0 0.00 0.00 0.00 76
20260903204503 66 215 8.0 11.0 0.00 0.00 0.00 76
20260903204424 66 215 8.0 11.0 0.00 0.00 0.00 76
20260903204303 65 214 8.0 10.0 0.00 0.00 0.00 76
20260903204202 65 216 8.0 10.0 0.00 0.00 0.00 76
20260903204102 66 217 8.0 11.0 0.00 0.00 0.00 76
20260903204003 66 219 8.0 11.0 0.00 0.00 0.00 76
20260903203903 66 220 8.0 11.0 0.00 0.00 0.00 76
20260903203802 66 221 8.0 11.0 0.00 0.00 0.00 76
20260903203702 66 221 8.0 11.0 0.00 0.00 0.00 75
20260903203603 66 222 8.0 11.0 0.00 0.00 0.00 75
20260903203503 66 223 8.0 11.0 0.00 0.00 0.00 75
20260903203424 66 224 8.0 11.0 0.00 0.00 0.00 75
20260903203323 66 225 8.0 11.0 0.00 0.00 0.00 75
20260903203224 66 224 8.0 11.0 0.00 0.00 0.00 75
20260903203103 66 223 7.0 9.0 0.00 0.00 0.00 75
20260903203003 66 222 7.0 9.0 0.00 0.00 0.00 75
20260903202903 66 222 7.0 9.0 0.00 0.00 0.00 75
20260903202803 66 221 7.0 9.0 0.00 0.00 0.00 75
20260903202702 66 221 7.0 9.0 0.00 0.00 0.00 75
20260903202602 66 220 7.0 9.0 0.00 0.00 0.00 75
20260903202504 66 218 7.0 9.0 0.00 0.00 0.00 75
20260903202403 66 216 7.0 9.0 0.00 0.00 0.00 75
20260903202306 66 214 7.0 9.0 0.00 0.00 0.00 75
20260903202224 66 214 7.0 9.0 0.00 0.00 0.00 75
20260903202103 66 215 7.0 10.0 0.00 0.00 0.00 75
20260903202023 66 215 7.0 10.0 0.00 0.00 0.00 75
20260903201903 66 218 7.0 10.0 0.00 0.00 0.00 74
20260903201824 66 219 7.0 10.0 0.00 0.00 0.00 74
20260903201702 66 222 7.0 10.0 0.00 0.00 0.00 74
20260903201623 66 224 7.0 10.0 0.00 0.00 0.00 74
20260903201502 66 229 8.0 11.0 0.00 0.00 0.00 73
20260903201404 66 232 8.0 11.0 0.00 0.00 0.00 73
20260903201323 66 234 8.0 11.0 0.00 0.00 0.00 73
20260903201203 66 236 8.0 11.0 0.00 0.00 0.00 73
20260903201103 66 237 8.0 11.0 0.00 0.00 0.00 73
20260903201024 66 238 8.0 11.0 0.00 0.00 0.00 73
20260903200903 66 238 8.0 11.0 0.00 0.00 0.00 72
20260903200803 67 238 8.0 12.0 0.00 0.00 0.00 72
20260903200702 67 238 8.0 12.0 0.00 0.00 0.00 72
20260903200603 67 238 8.0 12.0 0.00 0.00 0.00 72
20260903200523 67 239 8.0 12.0 0.00 0.00 0.00 72
20260903200403 67 240 7.0 12.0 0.00 0.00 0.00 72
20260903200303 67 240 7.0 12.0 0.00 0.00 0.00 72
20260903200224 67 241 7.0 12.0 0.00 0.00 0.00 72
20260903200003 67 243 8.0 12.0 0.00 0.00 0.00 72
20260903195903 67 244 8.0 12.0 0.00 0.00 0.00 71
20260903195803 67 245 8.0 11.0 0.00 0.00 0.00 71
20260903195723 67 245 8.0 11.0 0.00 0.00 0.00 71
20260903195603 67 245 8.0 12.0 0.00 0.00 0.00 71
20260903195503 67 245 9.0 12.0 0.00 0.00 0.00 71
20260903195403 67 246 9.0 12.0 0.00 0.00 0.00 71
20260903195306 67 246 9.0 12.0 0.00 0.00 0.00 71
20260903195224 67 246 9.0 12.0 0.00 0.00 0.00 71
20260903195103 67 245 9.0 12.0 0.00 0.00 0.00 71
20260903195002 67 247 9.0 12.0 0.00 0.00 0.00 70
20260903194903 67 247 9.0 12.0 0.00 0.00 0.00 70
20260903194823 67 247 9.0 12.0 0.00 0.00 0.00 70
20260903194724 67 248 9.0 12.0 0.00 0.00 0.00 70
20260903194623 67 249 9.0 12.0 0.00 0.00 0.00 70
20260903194503 67 248 9.0 12.0 0.00 0.00 0.00 70
20260903194403 67 249 8.0 12.0 0.00 0.00 0.00 70
20260903194302 68 249 8.0 12.0 0.00 0.00 0.00 70
20260903194202 68 251 8.0 12.0 0.00 0.00 0.00 70
20260903194103 68 252 8.0 12.0 0.00 0.00 0.00 70
20260903194023 68 252 8.0 12.0 0.00 0.00 0.00 70
20260903193904 68 252 8.0 12.0 0.00 0.00 0.00 69
20260903193803 68 252 8.0 12.0 0.00 0.00 0.00 69
20260903193703 68 252 8.0 12.0 0.00 0.00 0.00 69
20260903193603 68 252 9.0 12.0 0.00 0.00 0.00 69
20260903193502 68 251 9.0 12.0 0.00 0.00 0.00 69
20260903193423 68 251 9.0 12.0 0.00 0.00 0.00 69
20260903193303 68 252 9.0 12.0 0.00 0.00 0.00 69
20260903193224 68 253 9.0 12.0 0.00 0.00 0.00 69
20260903193103 68 252 8.0 12.0 0.00 0.00 0.00 69
20260903193002 68 253 8.0 12.0 0.00 0.00 0.00 69
20260903192903 68 254 8.0 14.0 0.00 0.00 0.00 68
20260903192803 68 254 8.0 14.0 0.00 0.00 0.00 68
20260903192703 68 256 8.0 14.0 0.00 0.00 0.00 68
20260903192603 68 258 8.0 14.0 0.00 0.00 0.00 68
20260903192524 68 260 8.0 14.0 0.00 0.00 0.00 68
20260903192403 68 265 9.0 14.0 0.00 0.00 0.00 68
20260903192306 68 267 9.0 14.0 0.00 0.00 0.00 68
20260903192202 68 268 9.0 15.0 0.00 0.00 0.00 68
20260903192103 68 269 10.0 16.0 0.00 0.00 0.00 68
20260903192003 68 269 10.0 16.0 0.00 0.00 0.00 68
20260903191903 68 267 11.0 16.0 0.00 0.00 0.00 67
20260903191802 68 267 11.0 21.0 0.00 0.00 0.00 67
20260903191703 68 267 11.0 21.0 0.00 0.00 0.00 67
20260903191603 68 266 11.0 21.0 0.00 0.00 0.00 67
20260903191524 68 266 11.0 21.0 0.00 0.00 0.00 67
20260903191403 68 264 10.0 21.0 0.00 0.00 0.00 67
20260903191303 68 262 10.0 21.0 0.00 0.00 0.00 67
20260903191203 68 262 10.0 21.0 0.00 0.00 0.00 67
20260903191103 68 262 10.0 21.0 0.00 0.00 0.00 67
20260903191024 68 261 10.0 21.0 0.00 0.00 0.00 67
20260903190904 68 264 10.0 21.0 0.00 0.00 0.00 68
20260903190824 68 265 10.0 20.0 0.00 0.00 0.00 68
20260903190724 68 265 9.0 20.0 0.00 0.00 0.00 68
20260903190603 68 266 10.0 20.0 0.00 0.00 0.00 67
20260903190502 68 267 10.0 20.0 0.00 0.00 0.00 67
20260903190403 68 267 10.0 20.0 0.00 0.00 0.00 67
20260903190303 69 267 10.0 20.0 0.00 0.00 0.00 67
20260903190203 69 266 11.0 20.0 0.00 0.00 0.00 67
20260903190003 69 267 10.0 20.0 0.00 0.00 0.00 67
20260903185903 69 266 10.0 18.0 0.00 0.00 0.00 67
20260903185803 69 265 11.0 18.0 0.00 0.00 0.00 67
20260903185703 69 264 11.0 18.0 0.00 0.00 0.00 67
20260903185624 69 264 11.0 18.0 0.00 0.00 0.00 67
20260903185524 69 262 11.0 18.0 0.00 0.00 0.00 67
20260903185403 69 260 11.0 18.0 0.00 0.00 0.00 67
20260903185306 69 261 11.0 18.0 0.00 0.00 0.00 67
20260903185223 69 260 11.0 18.0 0.00 0.00 0.00 67
20260903185124 69 259 11.0 18.0 0.00 0.00 0.00 67
20260903185003 69 257 11.0 18.0 0.00 0.00 0.00 68
20260903184903 69 254 11.0 20.0 0.00 0.00 0.00 68
20260903184824 69 254 11.0 20.0 0.00 0.00 0.00 68
20260903184703 69 253 11.0 20.0 0.00 0.00 0.00 69
20260903184603 69 253 11.0 20.0 0.00 0.00 0.00 69
20260903184524 69 254 11.0 20.0 0.00 0.00 0.00 69
20260903184403 69 254 11.0 20.0 0.00 0.00 0.00 69
20260903184302 69 251 11.0 21.0 0.00 0.00 0.00 69
20260903184204 69 250 11.0 21.0 0.00 0.00 0.00 69
20260903184103 69 249 11.0 21.0 0.00 0.00 0.00 69
20260903184003 69 249 10.0 21.0 0.00 0.00 0.00 69
20260903183924 69 249 10.0 21.0 0.00 0.00 0.00 69
20260903183803 69 248 10.0 21.0 0.00 0.00 0.00 69
20260903183703 69 247 11.0 21.0 0.00 0.00 0.00 69
20260903183603 69 246 11.0 21.0 0.00 0.00 0.00 69
20260903183503 69 243 11.0 21.0 0.00 0.00 0.00 69
20260903183403 69 243 10.0 21.0 0.00 0.00 0.00 69
20260903183302 69 242 10.0 19.0 0.00 0.00 0.00 69
20260903183202 69 242 10.0 14.0 0.00 0.00 0.00 69
20260903183124 69 242 10.0 14.0 0.00 0.00 0.00 69
20260903183002 69 243 10.0 15.0 0.00 0.00 0.00 70
20260903182903 69 244 10.0 16.0 0.00 0.00 0.00 69
20260903182803 69 245 10.0 16.0 0.00 0.00 0.00 69
20260903182703 69 247 10.0 16.0 0.00 0.00 0.00 69
20260903182603 69 247 10.0 16.0 0.00 0.00 0.00 69
20260903182503 69 249 10.0 16.0 0.00 0.00 0.00 69
20260903182403 69 249 10.0 16.0 0.00 0.00 0.00 69
20260903182306 69 251 9.0 16.0 0.00 0.00 0.00 69
20260903182202 69 251 9.0 16.0 0.00 0.00 0.00 69
20260903182103 69 252 9.0 16.0 0.00 0.00 0.00 69
20260903182003 69 252 9.0 16.0 0.00 0.00 0.00 69
20260903181923 69 252 9.0 16.0 0.00 0.00 0.00 69
20260903181804 69 253 9.0 15.0 0.00 0.00 0.00 69
20260903181703 69 253 9.0 15.0 0.00 0.00 0.00 69
20260903181603 69 253 10.0 15.0 0.00 0.00 0.00 69
20260903181524 69 254 10.0 15.0 0.00 0.00 0.00 69
20260903181403 70 255 10.0 18.0 0.00 0.00 0.00 68
20260903181304 70 255 10.0 18.0 0.00 0.00 0.00 68
20260903181203 70 256 11.0 18.0 0.00 0.00 0.00 68
20260903181124 70 256 11.0 18.0 0.00 0.00 0.00 68
20260903181003 70 258 10.0 18.0 0.00 0.00 0.00 68
20260903180924 70 258 10.0 18.0 0.00 0.00 0.00 68
20260903180802 70 258 10.0 18.0 0.00 0.00 0.00 68
20260903180703 70 258 10.0 18.0 0.00 0.00 0.00 68
20260903180603 70 258 10.0 18.0 0.00 0.00 0.00 68
20260903180503 70 257 10.0 18.0 0.00 0.00 0.00 68
20260903180403 70 257 9.0 14.0 0.00 0.00 0.00 68
20260903180303 70 257 9.0 14.0 0.00 0.00 0.00 68
20260903180203 70 257 9.0 14.0 0.00 0.00 0.00 68
20260903180003 70 255 9.0 14.0 0.00 0.00 0.00 68
20260903175903 70 255 9.0 14.0 0.00 0.00 0.00 68
20260903175803 70 255 9.0 14.0 0.00 0.00 0.00 68
20260903175724 70 255 9.0 14.0 0.00 0.00 0.00 68
20260903175603 70 254 9.0 13.0 0.00 0.00 0.00 68
20260903175503 70 253 10.0 15.0 0.00 0.00 0.00 68
20260903175403 70 252 10.0 16.0 0.00 0.00 0.00 68
20260903175305 70 251 10.0 16.0 0.00 0.00 0.00 68
20260903175203 70 251 10.0 16.0 0.00 0.00 0.00 68
20260903175102 70 250 11.0 16.0 0.00 0.00 0.00 68
20260903175003 70 249 11.0 16.0 0.00 0.00 0.00 68
20260903174902 70 248 11.0 16.0 0.00 0.00 0.00 68
20260903174825 70 248 11.0 16.0 0.00 0.01 0.00 68
20260903174704 70 247 11.0 16.0 0.00 0.01 0.00 67
20260903174624 70 246 11.0 16.0 0.00 0.01 0.00 67
20260903174524 70 247 11.0 16.0 0.00 0.01 0.00 67
20260903174424 70 246 10.0 15.0 0.00 0.01 0.00 67
20260903174304 70 247 10.0 15.0 0.00 0.01 0.00 67
20260903174203 70 247 10.0 15.0 0.00 0.01 0.00 67
20260903174103 70 247 10.0 15.0 0.00 0.01 0.00 68
20260903174003 70 247 10.0 13.0 0.00 0.01 0.00 68
20260903173903 70 246 10.0 13.0 0.00 0.01 0.00 68
20260903173804 70 246 10.0 13.0 0.00 0.01 0.00 68
20260903173703 70 246 10.0 13.0 0.00 0.01 0.00 68
20260903173603 70 245 10.0 13.0 0.00 0.01 0.00 68
20260903173503 70 244 10.0 13.0 0.00 0.01 0.00 67
20260903173403 70 243 10.0 13.0 0.00 0.01 0.00 68
20260903173302 70 243 10.0 13.0 0.00 0.01 0.00 68
20260903173203 70 242 10.0 14.0 0.00 0.01 0.00 68
20260903173124 70 243 10.0 14.0 0.00 0.01 0.00 68
20260903173003 70 243 10.0 14.0 0.00 0.01 0.00 68
20260903172903 70 242 10.0 14.0 0.00 0.01 0.00 68
20260903172824 70 241 10.0 15.0 0.00 0.01 0.00 68
20260903172703 70 241 10.0 15.0 0.00 0.01 0.00 68
20260903172603 70 242 10.0 15.0 0.00 0.01 0.00 68
20260903172502 70 244 11.0 18.0 0.00 0.01 0.00 67
20260903172403 70 244 10.0 18.0 0.00 0.01 0.00 67
20260903172306 70 245 10.0 18.0 0.00 0.01 0.00 67
20260903172203 70 245 10.0 18.0 0.00 0.01 0.00 67
20260903172103 70 245 10.0 18.0 0.00 0.01 0.00 67
20260903172003 70 245 10.0 18.0 0.00 0.01 0.00 67
20260903171903 70 246 10.0 18.0 0.00 0.01 0.00 67
20260903171824 70 246 10.0 18.0 0.00 0.01 0.00 67
20260903171724 70 246 10.0 18.0 0.00 0.01 0.00 67
20260903171603 70 247 9.0 18.0 0.00 0.01 0.00 67
20260903171503 70 246 9.0 14.0 0.00 0.01 0.00 67
20260903171404 70 246 10.0 14.0 0.00 0.01 0.00 67
20260903171304 70 246 10.0 14.0 0.00 0.01 0.00 67
20260903171203 70 246 10.0 14.0 0.00 0.01 0.00 67
20260903171103 71 246 10.0 14.0 0.00 0.01 0.00 67
20260903171003 71 246 10.0 14.0 0.00 0.01 0.00 67
20260903170925 71 246 10.0 14.0 0.00 0.01 0.00 67
20260903170803 71 246 10.0 16.0 0.00 0.01 0.00 67
20260903170703 71 247 10.0 16.0 0.00 0.01 0.00 66
20260903170603 71 246 11.0 16.0 0.00 0.01 0.00 67
20260903170503 71 246 12.0 20.0 0.00 0.01 0.00 67
20260903170403 71 245 12.0 20.0 0.00 0.01 0.00 67
20260903170303 71 243 12.0 20.0 0.00 0.01 0.00 67
20260903170224 71 244 12.0 20.0 0.00 0.01 0.00 67
20260903170124 71 244 12.0 20.0 0.00 0.01 0.00 66
20260903170003 71 244 13.0 20.0 0.00 0.01 0.00 66
20260903165903 71 244 13.0 20.0 0.00 0.01 0.00 66
20260903165803 71 244 13.0 20.0 0.00 0.01 0.00 66
20260903165703 71 243 13.0 20.0 0.00 0.01 0.00 66
20260903165624 71 243 13.0 20.0 0.00 0.01 0.00 66
20260903165503 71 243 12.0 20.0 0.00 0.01 0.00 66
20260903165403 71 244 11.0 18.0 0.00 0.01 0.00 66
20260903165324 71 246 11.0 18.0 0.00 0.01 0.00 66
20260903165203 71 246 11.0 18.0 0.00 0.01 0.00 66
20260903165103 71 247 11.0 18.0 0.00 0.01 0.00 66
20260903165003 71 249 11.0 18.0 0.00 0.01 0.00 66
20260903164903 71 249 10.0 18.0 0.00 0.01 0.00 66
20260903164803 71 250 10.0 18.0 0.00 0.01 0.00 66
20260903164703 71 250 10.0 15.0 0.00 0.01 0.00 66
20260903164603 71 251 10.0 15.0 0.00 0.01 0.00 66
20260903164503 71 253 11.0 21.0 0.00 0.01 0.00 66
20260903164404 71 253 11.0 21.0 0.00 0.01 0.00 65
20260903164303 71 255 10.0 21.0 0.00 0.01 0.00 65
20260903164203 71 256 10.0 21.0 0.00 0.01 0.00 65
20260903164103 71 256 10.0 21.0 0.00 0.01 0.00 65
20260903164003 71 256 10.0 21.0 0.00 0.01 0.00 65
20260903163903 71 257 10.0 21.0 0.00 0.01 0.00 65
20260903163803 71 256 11.0 21.0 0.00 0.01 0.00 65
20260903163724 71 256 11.0 22.0 0.00 0.01 0.00 65
20260903163603 71 256 11.0 22.0 0.00 0.01 0.00 65
20260903163503 71 255 11.0 22.0 0.00 0.01 0.00 65
20260903163403 71 254 11.0 22.0 0.00 0.01 0.00 65
20260903163303 71 252 11.0 22.0 0.00 0.01 0.00 65
20260903163204 71 252 11.0 22.0 0.00 0.01 0.00 65
20260903163103 71 253 11.0 22.0 0.00 0.01 0.00 65
20260903163003 71 254 11.0 22.0 0.00 0.01 0.00 65
20260903162903 71 255 11.0 22.0 0.00 0.01 0.00 64
20260903162803 71 256 11.0 22.0 0.00 0.01 0.00 65
20260903162703 71 255 10.0 18.0 0.00 0.01 0.00 64
20260903162603 71 255 10.0 18.0 0.00 0.01 0.00 65
20260903162503 71 256 11.0 18.0 0.00 0.01 0.00 64
20260903162403 71 257 11.0 19.0 0.00 0.01 0.00 65
20260903162306 71 257 11.0 19.0 0.00 0.01 0.00 64
20260903162203 71 257 11.0 19.0 0.00 0.01 0.00 64
20260903162124 71 256 11.0 19.0 0.00 0.01 0.00 64
20260903162024 71 254 12.0 19.0 0.00 0.01 0.00 64
20260903161903 72 252 12.0 21.0 0.00 0.01 0.00 65
20260903161803 72 253 12.0 21.0 0.00 0.01 0.00 65
20260903161703 72 252 12.0 21.0 0.00 0.01 0.00 64
20260903161603 72 253 12.0 21.0 0.00 0.01 0.00 64
20260903161525 72 253 12.0 21.0 0.00 0.01 0.00 64
20260903161403 72 252 12.0 21.0 0.00 0.01 0.00 64
20260903161303 72 252 12.0 21.0 0.00 0.01 0.00 64
20260903161203 72 252 11.0 21.0 0.00 0.01 0.00 64
20260903161103 72 253 11.0 21.0 0.00 0.01 0.00 64
20260903161003 72 256 11.0 21.0 0.00 0.01 0.00 64
20260903160924 72 255 11.0 20.0 0.00 0.01 0.00 64
20260903160804 72 254 10.0 20.0 0.00 0.01 0.00 64
20260903160703 72 255 10.0 20.0 0.00 0.01 0.00 64
20260903160624 72 256 10.0 20.0 0.00 0.01 0.00 64
20260903160524 72 257 10.0 20.0 0.00 0.01 0.00 63
20260903160424 72 258 10.0 20.0 0.00 0.01 0.00 64
20260903160303 72 261 10.0 18.0 0.00 0.01 0.00 64
20260903160203 72 261 10.0 18.0 0.00 0.01 0.00 64
20260903160003 72 262 10.0 18.0 0.00 0.01 0.00 64
20260903155903 72 265 10.0 18.0 0.00 0.01 0.00 64
20260903155803 72 266 10.0 18.0 0.00 0.01 0.00 63
20260903155703 72 269 10.0 18.0 0.00 0.01 0.00 64
20260903155603 72 269 10.0 20.0 0.00 0.01 0.00 63
20260903155503 72 271 10.0 20.0 0.00 0.01 0.00 63
20260903155404 72 272 11.0 20.0 0.00 0.01 0.00 63
20260903155324 72 272 11.0 20.0 0.00 0.01 0.00 63
20260903155204 72 273 10.0 20.0 0.00 0.01 0.00 64
20260903155124 72 275 10.0 20.0 0.00 0.01 0.00 64
20260903155003 72 274 10.0 20.0 0.00 0.01 0.00 64
20260903154903 72 273 10.0 20.0 0.00 0.01 0.00 64
20260903154804 72 272 10.0 20.0 0.00 0.01 0.00 64
20260903154724 72 271 10.0 20.0 0.00 0.01 0.00 64
20260903154624 72 271 9.0 16.0 0.00 0.01 0.00 64
20260903154503 72 267 9.0 16.0 0.00 0.01 0.00 65
20260903154403 72 265 8.0 16.0 0.00 0.01 0.00 65
20260903154303 72 265 8.0 14.0 0.00 0.01 0.00 66
20260903154203 72 263 9.0 19.0 0.00 0.01 0.00 65
20260903154103 72 261 9.0 19.0 0.00 0.01 0.00 65
20260903154003 72 260 10.0 19.0 0.00 0.01 0.00 65
20260903153903 72 260 10.0 19.0 0.00 0.01 0.00 65
20260903153803 72 259 10.0 19.0 0.00 0.01 0.00 66
20260903153703 72 258 11.0 19.0 0.00 0.01 0.00 65
20260903153603 72 258 11.0 20.0 0.00 0.01 0.00 65
20260903153503 72 256 12.0 20.0 0.00 0.01 0.00 65
20260903153404 72 256 12.0 21.0 0.00 0.01 0.00 65
20260903153324 72 255 12.0 21.0 0.00 0.01 0.00 65
20260903153203 72 253 12.0 21.0 0.00 0.01 0.00 64
20260903153103 72 253 12.0 21.0 0.00 0.01 0.00 65
20260903153024 72 252 12.0 21.0 0.00 0.01 0.00 65
20260903152924 72 251 12.0 21.0 0.00 0.01 0.00 65
20260903152803 72 252 12.0 21.0 0.00 0.01 0.00 64
20260903152724 72 253 12.0 21.0 0.00 0.01 0.00 64
20260903152624 72 254 12.0 21.0 0.00 0.01 0.00 64
20260903152503 72 253 13.0 21.0 0.00 0.01 0.00 63
20260903152403 72 252 14.0 22.0 0.00 0.01 0.00 64
20260903152306 72 252 14.0 22.0 0.00 0.01 0.00 65
20260903152203 72 252 15.0 22.0 0.00 0.01 0.00 64
20260903152124 72 252 15.0 22.0 0.00 0.01 0.00 64
20260903152003 72 252 16.0 24.0 0.00 0.01 0.00 64
20260903151903 72 252 16.0 24.0 0.00 0.01 0.00 63
20260903151803 72 250 17.0 24.0 0.00 0.01 0.00 63
20260903151703 72 249 17.0 24.0 0.00 0.01 0.00 63
20260903151624 72 249 17.0 24.0 0.00 0.01 0.00 63
20260903151503 73 250 17.0 24.0 0.00 0.01 0.00 62
20260903151403 73 249 16.0 26.0 0.00 0.01 0.00 62
20260903151303 73 250 16.0 26.0 0.00 0.01 0.00 63
20260903151203 73 249 15.0 26.0 0.00 0.01 0.00 62
20260903151103 73 249 15.0 26.0 0.00 0.01 0.00 62
20260903151003 73 249 14.0 26.0 0.00 0.01 0.00 62
20260903150903 73 251 13.0 26.0 0.00 0.01 0.00 62
20260903150803 73 252 13.0 26.0 0.00 0.01 0.00 64
20260903150703 73 253 13.0 26.0 0.00 0.01 0.00 62
20260903150603 73 254 12.0 26.0 0.00 0.01 0.00 63
20260903150524 72 253 12.0 26.0 0.00 0.01 0.00 63
20260903150404 72 255 12.0 19.0 0.00 0.01 0.00 63
20260903150304 72 255 12.0 19.0 0.00 0.01 0.00 64
20260903150224 72 255 12.0 20.0 0.00 0.01 0.00 64
20260903150124 72 254 12.0 21.0 0.00 0.01 0.00 64
20260903150003 72 253 13.0 21.0 0.00 0.01 0.00 64
20260903145903 72 251 13.0 22.0 0.00 0.01 0.00 63
20260903145803 72 249 13.0 22.0 0.00 0.01 0.00 64
20260903145703 72 249 13.0 22.0 0.00 0.01 0.00 64
20260903145603 72 248 13.0 22.0 0.00 0.01 0.00 63
20260903145504 72 249 13.0 22.0 0.00 0.01 0.00 63
20260903145424 72 249 13.0 22.0 0.00 0.01 0.00 63
20260903145305 72 249 12.0 22.0 0.00 0.01 0.00 63
20260903145203 72 250 11.0 22.0 0.00 0.01 0.00 64
20260903145103 72 251 11.0 22.0 0.00 0.01 0.00 63
20260903145024 72 252 11.0 22.0 0.00 0.01 0.00 63
20260903144903 72 254 10.0 19.0 0.00 0.01 0.00 63
20260903144803 72 255 10.0 19.0 0.00 0.01 0.00 63
20260903144703 72 256 9.0 19.0 0.00 0.01 0.00 63
20260903144603 72 257 9.0 18.0 0.00 0.01 0.00 64
20260903144503 72 252 9.0 15.0 0.00 0.01 0.00 64
20260903144403 72 250 9.0 15.0 0.00 0.01 0.00 64
20260903144303 72 249 9.0 15.0 0.00 0.01 0.00 64
20260903144203 71 248 10.0 15.0 0.00 0.01 0.00 64
20260903144103 71 247 10.0 15.0 0.00 0.01 0.00 63
20260903144003 71 246 10.0 15.0 0.00 0.01 0.00 63
20260903143903 71 247 10.0 15.0 0.00 0.01 0.00 63
20260903143803 71 248 10.0 15.0 0.00 0.01 0.00 64
20260903143724 71 248 10.0 15.0 0.00 0.01 0.00 64
20260903143603 71 249 9.0 15.0 0.00 0.01 0.00 64
20260903143503 71 252 9.0 16.0 0.00 0.01 0.00 64
20260903143403 71 255 9.0 16.0 0.00 0.01 0.00 63
20260903143303 71 255 9.0 16.0 0.00 0.01 0.00 63
20260903143203 71 255 9.0 16.0 0.00 0.01 0.00 63
20260903143103 71 254 9.0 16.0 0.00 0.01 0.00 63
20260903143003 71 255 9.0 16.0 0.00 0.01 0.00 64
20260903142903 71 255 9.0 16.0 0.00 0.01 0.00 64
20260903142804 71 254 9.0 16.0 0.00 0.01 0.00 63
20260903142703 71 254 9.0 16.0 0.00 0.01 0.00 63
20260903142603 71 254 8.0 16.0 0.00 0.01 0.00 65
20260903142503 71 255 8.0 13.0 0.00 0.01 0.00 65
20260903142424 71 256 8.0 13.0 0.00 0.01 0.00 65
20260903142306 71 259 8.0 13.0 0.00 0.01 0.00 64
20260903142203 71 258 8.0 13.0 0.00 0.01 0.00 64
20260903142103 70 260 8.0 13.0 0.00 0.01 0.00 63
20260903142003 70 260 7.0 13.0 0.00 0.01 0.00 64
20260903141903 70 260 7.0 12.0 0.00 0.01 0.00 64
20260903141824 70 260 7.0 12.0 0.00 0.01 0.00 64
20260903141703 71 260 7.0 10.0 0.00 0.01 0.00 65
20260903141603 71 257 7.0 10.0 0.00 0.01 0.00 65
20260903141524 71 255 7.0 10.0 0.00 0.01 0.00 65
20260903141403 71 254 7.0 10.0 0.00 0.01 0.00 64
20260903141303 71 255 7.0 10.0 0.00 0.01 0.00 64
20260903141203 71 257 7.0 11.0 0.00 0.01 0.00 65
20260903141103 71 260 7.0 11.0 0.00 0.01 0.00 65
20260903141003 71 263 7.0 11.0 0.00 0.01 0.00 65
20260903140903 71 267 7.0 11.0 0.00 0.01 0.00 65
20260903140803 70 269 7.0 11.0 0.00 0.01 0.00 64
20260903140703 70 271 7.0 11.0 0.00 0.01 0.00 65
20260903140604 70 274 7.0 11.0 0.00 0.01 0.00 64
20260903140503 70 275 8.0 12.0 0.00 0.01 0.00 64
20260903140403 71 277 8.0 15.0 0.00 0.01 0.00 64
20260903140303 71 280 9.0 15.0 0.00 0.01 0.00 64
20260903140224 71 281 9.0 15.0 0.00 0.01 0.00 64
20260903140003 71 283 9.0 16.0 0.00 0.01 0.00 64
20260903135903 71 281 9.0 16.0 0.00 0.01 0.00 64
20260903135824 71 281 9.0 16.0 0.00 0.01 0.00 64
20260903135703 71 280 10.0 16.0 0.00 0.01 0.00 63
20260903135603 71 278 10.0 16.0 0.00 0.01 0.00 63
20260903135503 71 276 10.0 16.0 0.00 0.01 0.00 62
20260903135403 71 273 10.0 18.0 0.00 0.01 0.00 63
20260903135306 71 271 10.0 18.0 0.00 0.01 0.00 63
20260903135204 71 269 9.0 18.0 0.00 0.01 0.00 63
20260903135103 71 266 10.0 18.0 0.00 0.01 0.00 64
20260903135003 71 268 10.0 18.0 0.00 0.01 0.00 64
20260903134924 71 268 10.0 18.0 0.00 0.01 0.00 64
20260903134803 71 268 11.0 18.0 0.00 0.01 0.00 64
20260903134703 71 271 11.0 18.0 0.00 0.01 0.00 63
20260903134603 71 273 11.0 18.0 0.00 0.01 0.00 64
20260903134503 71 276 11.0 18.0 0.00 0.01 0.00 66
20260903134403 70 275 11.0 18.0 0.00 0.01 0.00 64
20260903134303 70 274 12.0 18.0 0.00 0.01 0.00 64
20260903134203 70 274 12.0 19.0 0.00 0.01 0.00 64
20260903134103 70 274 12.0 19.0 0.00 0.01 0.00 64
20260903134003 70 273 12.0 19.0 0.00 0.01 0.00 64
20260903133903 70 274 12.0 21.0 0.00 0.01 0.00 64
20260903133803 70 274 12.0 21.0 0.00 0.01 0.00 64
20260903133703 70 272 12.0 21.0 0.00 0.01 0.00 64
20260903133603 70 271 12.0 21.0 0.00 0.01 0.00 64
20260903133503 70 270 12.0 21.0 0.00 0.01 0.00 63
20260903133403 70 270 12.0 21.0 0.00 0.01 0.00 63
20260903133303 70 270 12.0 21.0 0.00 0.01 0.00 64
20260903133203 70 270 13.0 21.0 0.00 0.01 0.00 64
20260903133103 70 272 13.0 21.0 0.00 0.01 0.00 63
20260903133003 70 273 13.0 22.0 0.00 0.01 0.00 63
20260903132903 70 273 13.0 22.0 0.00 0.01 0.00 64
20260903132803 70 274 13.0 22.0 0.00 0.01 0.00 64
20260903132703 70 275 13.0 22.0 0.00 0.01 0.00 64
20260903132603 70 276 14.0 22.0 0.00 0.01 0.00 63
20260903132503 70 276 13.0 22.0 0.00 0.01 0.00 63
20260903132403 70 276 13.0 22.0 0.00 0.01 0.00 63
20260903132306 70 277 13.0 22.0 0.00 0.01 0.00 63
20260903132203 70 276 13.0 22.0 0.00 0.01 0.00 63
20260903132103 70 274 13.0 22.0 0.00 0.01 0.00 62
20260903132003 70 272 13.0 22.0 0.00 0.01 0.00 64
20260903131903 70 271 13.0 22.0 0.00 0.01 0.00 63
20260903131825 70 270 13.0 22.0 0.00 0.01 0.00 63
20260903131704 70 271 13.0 22.0 0.00 0.01 0.00 63
20260903131603 70 270 13.0 22.0 0.00 0.01 0.00 64
20260903131504 70 274 14.0 21.0 0.00 0.01 0.00 64
20260903131403 70 276 14.0 23.0 0.00 0.01 0.00 64
20260903131303 69 275 14.0 23.0 0.00 0.01 0.00 64
20260903131203 69 278 14.0 23.0 0.00 0.01 0.00 64
20260903131103 69 280 14.0 23.0 0.00 0.01 0.00 64
20260903131003 69 282 15.0 24.0 0.00 0.01 0.00 65
20260903130903 69 283 15.0 25.0 0.00 0.01 0.00 65
20260903130803 69 285 15.0 25.0 0.00 0.01 0.00 64
20260903130703 69 284 15.0 25.0 0.00 0.01 0.00 64
20260903130604 69 284 15.0 25.0 0.00 0.01 0.00 64
20260903130503 69 282 14.0 25.0 0.00 0.01 0.00 63
20260903130403 69 281 14.0 25.0 0.00 0.01 0.00 63
20260903130303 69 281 14.0 25.0 0.00 0.01 0.00 63
20260903130203 70 279 14.0 25.0 0.00 0.01 0.00 63
20260903130003 70 275 13.0 25.0 0.00 0.01 0.00 63
20260903125904 70 272 13.0 23.0 0.00 0.01 0.00 64
20260903125803 70 269 13.0 23.0 0.00 0.01 0.00 64
20260903125703 70 269 14.0 23.0 0.00 0.01 0.00 63
20260903125603 70 268 14.0 25.0 0.00 0.01 0.00 63
20260903125503 70 268 15.0 25.0 0.00 0.01 0.00 63
20260903125403 70 265 15.0 26.0 0.00 0.01 0.00 63
20260903125305 70 262 16.0 26.0 0.00 0.01 0.00 62
20260903125203 70 261 16.0 26.0 0.00 0.01 0.00 63
20260903125103 70 261 16.0 26.0 0.00 0.01 0.00 63
20260903125003 70 260 16.0 26.0 0.00 0.01 0.00 64
20260903124924 70 259 16.0 26.0 0.00 0.01 0.00 64
20260903124803 70 259 16.0 26.0 0.00 0.01 0.00 63
20260903124703 70 257 16.0 26.0 0.00 0.01 0.00 63
20260903124624 70 257 16.0 26.0 0.00 0.01 0.00 63
20260903124503 70 258 16.0 26.0 0.00 0.01 0.00 64
20260903124424 70 259 16.0 26.0 0.00 0.01 0.00 64
20260903124303 70 262 15.0 26.0 0.00 0.01 0.00 63
20260903124203 70 263 15.0 26.0 0.00 0.01 0.00 62
20260903124103 70 265 15.0 23.0 0.00 0.01 0.00 64
20260903124003 70 266 15.0 24.0 0.00 0.01 0.00 63
20260903123904 70 268 15.0 24.0 0.00 0.01 0.00 64
20260903123803 69 269 16.0 24.0 0.00 0.01 0.00 63
20260903123703 69 270 16.0 24.0 0.00 0.01 0.00 63
20260903123603 69 268 16.0 25.0 0.00 0.01 0.00 64
20260903123503 69 268 16.0 25.0 0.00 0.01 0.00 64
20260903123424 69 269 16.0 25.0 0.00 0.01 0.00 64
20260903123303 69 270 16.0 25.0 0.00 0.01 0.00 63
20260903123203 69 272 15.0 25.0 0.00 0.01 0.00 64
20260903123103 69 271 15.0 25.0 0.00 0.01 0.00 64
20260903123003 69 271 15.0 25.0 0.00 0.01 0.00 65
20260903122903 69 270 15.0 25.0 0.00 0.01 0.00 64
20260903122803 69 268 15.0 25.0 0.00 0.01 0.00 64
20260903122703 69 267 15.0 25.0 0.00 0.01 0.00 65
20260903122603 70 268 14.0 21.0 0.00 0.01 0.00 66
20260903122524 70 268 14.0 21.0 0.00 0.01 0.00 66
20260903122424 70 267 14.0 21.0 0.00 0.01 0.00 67
20260903122305 70 264 15.0 22.0 0.00 0.01 0.00 66
20260903122203 70 263 15.0 22.0 0.00 0.01 0.00 65
20260903122103 70 266 15.0 24.0 0.00 0.01 0.00 66
20260903122003 70 268 15.0 24.0 0.00 0.01 0.00 66
20260903121903 70 269 15.0 24.0 0.00 0.01 0.00 66
20260903121803 70 270 15.0 24.0 0.00 0.01 0.00 66
20260903121724 70 270 15.0 24.0 0.00 0.01 0.00 66
20260903121603 69 272 15.0 24.0 0.00 0.01 0.00 67
20260903121503 69 273 15.0 24.0 0.00 0.01 0.00 67
20260903121403 69 275 15.0 25.0 0.00 0.01 0.00 68
20260903121303 69 277 16.0 28.0 0.00 0.01 0.00 67
20260903121203 69 277 15.0 28.0 0.00 0.01 0.00 67
20260903121125 69 275 15.0 28.0 0.00 0.01 0.00 67
20260903121003 69 272 14.0 28.0 0.00 0.01 0.00 67
20260903120903 69 269 15.0 28.0 0.00 0.01 0.00 67
20260903120803 69 267 15.0 28.0 0.00 0.01 0.00 67
20260903120703 69 265 15.0 28.0 0.00 0.01 0.00 67
20260903120603 69 264 15.0 28.0 0.00 0.01 0.00 67
20260903120503 69 262 15.0 28.0 0.00 0.01 0.00 66
20260903120403 69 260 15.0 28.0 0.00 0.01 0.00 68
20260903120303 69 258 15.0 25.0 0.00 0.01 0.00 68
20260903120203 69 257 15.0 25.0 0.00 0.01 0.00 69
20260903120003 68 259 15.0 25.0 0.00 0.01 0.00 69
20260903115903 68 262 15.0 25.0 0.00 0.01 0.00 68
20260903115803 68 265 15.0 25.0 0.00 0.01 0.00 68
20260903115703 68 269 15.0 25.0 0.00 0.01 0.00 69
20260903115603 68 272 15.0 25.0 0.00 0.01 0.00 68
20260903115503 68 275 15.0 25.0 0.00 0.01 0.00 68
20260903115404 68 278 15.0 25.0 0.00 0.01 0.00 68
20260903115305 69 280 15.0 25.0 0.00 0.01 0.00 68
20260903115203 69 284 15.0 26.0 0.00 0.01 0.00 69
20260903115124 69 284 15.0 26.0 0.00 0.01 0.00 69
20260903115003 69 284 15.0 26.0 0.00 0.01 0.00 68
20260903114904 68 284 14.0 26.0 0.00 0.01 0.00 68
20260903114824 68 282 14.0 26.0 0.00 0.01 0.00 68
20260903114703 68 280 14.0 26.0 0.00 0.01 0.00 68
20260903114624 68 278 14.0 26.0 0.00 0.01 0.00 68
20260903114503 68 273 14.0 26.0 0.00 0.01 0.00 68
20260903114403 68 271 14.0 26.0 0.00 0.01 0.00 68
20260903114303 68 270 13.0 26.0 0.00 0.01 0.00 69
20260903114203 68 267 13.0 23.0 0.00 0.01 0.00 68
20260903114103 68 265 13.0 23.0 0.00 0.01 0.00 68
20260903114024 68 264 13.0 23.0 0.00 0.01 0.00 68
20260903113924 68 263 14.0 23.0 0.00 0.01 0.00 68
20260903113803 68 265 14.0 23.0 0.00 0.01 0.00 67
20260903113703 68 265 13.0 23.0 0.00 0.01 0.00 67
20260903113603 68 266 13.0 23.0 0.00 0.01 0.00 67
20260903113503 68 266 13.0 23.0 0.00 0.01 0.00 67
20260903113403 68 264 13.0 23.0 0.00 0.01 0.00 67
20260903113303 68 263 13.0 23.0 0.00 0.01 0.00 66
20260903113224 68 263 13.0 23.0 0.00 0.01 0.00 66
20260903113124 69 263 13.0 23.0 0.00 0.01 0.00 67
20260903113024 69 264 13.0 23.0 0.00 0.01 0.00 67
20260903112903 69 266 13.0 20.0 0.00 0.01 0.00 68
20260903112803 69 267 14.0 22.0 0.00 0.01 0.00 67
20260903112703 69 269 14.0 23.0 0.00 0.01 0.00 67
20260903112603 69 269 14.0 23.0 0.00 0.01 0.00 67
20260903112503 69 269 14.0 23.0 0.00 0.01 0.00 67
20260903112403 69 269 14.0 23.0 0.00 0.01 0.00 68
20260903112305 69 270 14.0 23.0 0.00 0.01 0.00 70
20260903112203 69 271 14.0 23.0 0.00 0.01 0.00 69
20260903112103 69 271 14.0 23.0 0.00 0.01 0.00 70
20260903112024 69 271 14.0 23.0 0.00 0.01 0.00 70
20260903111903 68 269 14.0 23.0 0.00 0.01 0.00 69
20260903111803 69 267 14.0 23.0 0.00 0.01 0.00 68
20260903111703 69 264 13.0 23.0 0.00 0.01 0.00 68
20260903111603 69 263 13.0 23.0 0.00 0.01 0.00 70
20260903111503 69 263 13.0 23.0 0.00 0.01 0.00 71
20260903111403 69 264 13.0 23.0 0.00 0.01 0.00 71
20260903111303 68 264 14.0 23.0 0.00 0.01 0.00 70
20260903111203 68 262 14.0 23.0 0.00 0.01 0.00 70
20260903111124 68 262 14.0 23.0 0.00 0.01 0.00 70
20260903111003 69 261 13.0 23.0 0.00 0.01 0.00 71
20260903110903 69 261 13.0 23.0 0.00 0.01 0.00 72
20260903110803 68 261 14.0 23.0 0.00 0.01 0.00 73
20260903110703 68 261 14.0 23.0 0.00 0.01 0.00 72
20260903110603 68 261 14.0 23.0 0.00 0.01 0.00 72
20260903110503 68 259 14.0 23.0 0.00 0.01 0.00 71
20260903110403 68 259 14.0 23.0 0.00 0.01 0.00 72
20260903110303 68 260 13.0 23.0 0.00 0.01 0.00 73
20260903110203 68 259 14.0 21.0 0.00 0.01 0.00 74
20260903110003 68 259 15.0 24.0 0.00 0.01 0.00 75
20260903105903 68 257 16.0 24.0 0.00 0.01 0.00 75
20260903105803 68 255 16.0 27.0 0.00 0.01 0.00 75
20260903105703 68 253 16.0 27.0 0.00 0.01 0.00 74
20260903105603 68 253 16.0 27.0 0.00 0.01 0.00 75
20260903105503 68 253 16.0 27.0 0.00 0.01 0.00 74
20260903105424 68 252 16.0 27.0 0.00 0.01 0.00 74
20260903105305 68 251 16.0 27.0 0.00 0.01 0.00 74
20260903105203 68 254 16.0 27.0 0.00 0.01 0.00 75
20260903105103 68 252 15.0 27.0 0.00 0.01 0.00 75
20260903105003 68 252 15.0 27.0 0.00 0.01 0.00 75
20260903104903 68 253 15.0 27.0 0.00 0.01 0.00 76
20260903104803 68 254 15.0 21.0 0.00 0.01 0.00 76
20260903104704 68 257 15.0 22.0 0.00 0.01 0.00 77
20260903104603 67 258 15.0 24.0 0.00 0.01 0.00 77
20260903104503 67 257 16.0 24.0 0.00 0.01 0.00 76
20260903104403 67 256 16.0 24.0 0.00 0.01 0.00 76
20260903104324 67 256 16.0 24.0 0.00 0.01 0.00 76
20260903104203 67 254 16.0 24.0 0.00 0.01 0.00 77
20260903104103 67 252 16.0 24.0 0.00 0.01 0.00 77
20260903104004 67 252 16.0 24.0 0.00 0.01 0.00 77
20260903103903 67 251 15.0 24.0 0.00 0.01 0.00 77
20260903103803 67 251 15.0 24.0 0.00 0.01 0.00 77
20260903103724 67 250 15.0 24.0 0.00 0.01 0.00 77
20260903103603 67 249 14.0 22.0 0.00 0.01 0.00 78
20260903103524 67 249 14.0 21.0 0.00 0.01 0.00 78
20260903103403 67 250 15.0 21.0 0.00 0.01 0.00 78
20260903103324 67 250 15.0 21.0 0.00 0.01 0.00 78
20260903103203 67 249 14.0 21.0 0.00 0.01 0.00 79
20260903103103 67 249 14.0 21.0 0.00 0.01 0.00 79
20260903103003 67 249 14.0 21.0 0.00 0.01 0.00 79
20260903102903 67 249 15.0 21.0 0.00 0.01 0.00 79
20260903102803 67 249 15.0 21.0 0.00 0.01 0.00 80
20260903102703 67 247 16.0 26.0 0.00 0.01 0.00 79
20260903102604 67 246 15.0 26.0 0.00 0.01 0.00 79
20260903102503 67 245 15.0 26.0 0.00 0.01 0.00 79
20260903102403 67 244 15.0 26.0 0.00 0.01 0.00 81
20260903102306 67 244 15.0 26.0 0.00 0.01 0.00 80
20260903102203 67 244 14.0 26.0 0.00 0.01 0.00 81
20260903102103 67 245 14.0 26.0 0.00 0.01 0.00 80
20260903102003 67 245 14.0 26.0 0.00 0.01 0.00 80
20260903101904 67 244 14.0 26.0 0.00 0.01 0.00 80
20260903101803 67 244 13.0 26.0 0.00 0.01 0.00 81
20260903101703 67 245 13.0 21.0 0.00 0.01 0.00 81
20260903101603 67 246 13.0 20.0 0.00 0.01 0.00 81
20260903101503 67 246 13.0 20.0 0.00 0.01 0.00 82
20260903101424 67 248 13.0 20.0 0.00 0.01 0.00 82
20260903101303 66 248 13.0 20.0 0.00 0.01 0.00 82
20260903101224 66 248 13.0 20.0 0.00 0.01 0.00 82
20260903101103 66 248 13.0 20.0 0.00 0.01 0.00 82
20260903101003 66 247 13.0 20.0 0.00 0.01 0.00 81
20260903100903 66 248 13.0 20.0 0.00 0.01 0.00 81
20260903100824 66 248 13.0 20.0 0.00 0.01 0.00 81
20260903100703 66 248 13.0 20.0 0.00 0.01 0.00 82
20260903100604 65 249 13.0 20.0 0.00 0.01 0.00 83
20260903100503 65 248 13.0 20.0 0.00 0.01 0.00 83
20260903100404 65 247 12.0 20.0 0.00 0.01 0.00 83
20260903100303 65 247 12.0 18.0 0.00 0.01 0.00 83
20260903100203 65 247 12.0 18.0 0.00 0.01 0.00 83
20260903100124 65 247 12.0 18.0 0.00 0.01 0.00 83
20260903100003 64 248 12.0 18.0 0.00 0.01 0.00 83
20260903095924 64 248 12.0 18.0 0.00 0.01 0.00 83
20260903095824 64 247 12.0 18.0 0.00 0.01 0.00 83
20260903095703 64 248 12.0 18.0 0.00 0.01 0.00 84
20260903095603 64 248 12.0 18.0 0.00 0.01 0.00 84
20260903095503 64 248 12.0 16.0 0.00 0.01 0.00 84
20260903095403 64 249 12.0 16.0 0.00 0.01 0.00 84
20260903095305 64 249 12.0 16.0 0.00 0.01 0.00 84
20260903095203 64 248 12.0 18.0 0.00 0.01 0.00 84
20260903095124 64 248 12.0 18.0 0.00 0.01 0.00 84
20260903095003 64 247 12.0 18.0 0.00 0.01 0.00 85
20260903094903 64 246 12.0 18.0 0.00 0.01 0.00 85
20260903094824 64 246 12.0 18.0 0.00 0.01 0.00 85
20260903094703 64 245 12.0 18.0 0.00 0.01 0.00 85
20260903094624 64 245 12.0 18.0 0.00 0.01 0.00 85
20260903094504 64 245 12.0 18.0 0.00 0.01 0.00 85
20260903094404 64 244 12.0 18.0 0.00 0.01 0.00 85
20260903094303 64 245 12.0 19.0 0.00 0.01 0.00 85
20260903094203 64 245 13.0 19.0 0.00 0.01 0.00 86
20260903094103 64 245 13.0 21.0 0.00 0.01 0.00 86
20260903094003 64 245 14.0 23.0 0.00 0.01 0.00 86
20260903093903 64 245 14.0 23.0 0.00 0.01 0.00 86
20260903093824 64 246 14.0 23.0 0.00 0.01 0.00 86
20260903093703 64 246 14.0 23.0 0.00 0.01 0.00 86
20260903093603 64 247 14.0 23.0 0.00 0.01 0.00 86
20260903093503 63 247 14.0 23.0 0.00 0.01 0.00 86
20260903093403 64 247 13.0 23.0 0.00 0.01 0.00 85
20260903093324 64 247 13.0 23.0 0.00 0.01 0.00 85
20260903093224 64 247 13.0 23.0 0.00 0.01 0.00 85
20260903093103 64 248 12.0 23.0 0.00 0.01 0.00 85
20260903093024 64 249 12.0 23.0 0.00 0.01 0.00 85
20260903092905 64 251 11.0 20.0 0.00 0.01 0.00 84
20260903092824 64 251 11.0 20.0 0.00 0.01 0.00 84
20260903092703 64 252 11.0 16.0 0.00 0.01 0.00 84
20260903092603 64 253 11.0 16.0 0.00 0.01 0.00 84
20260903092503 64 253 11.0 16.0 0.00 0.01 0.00 84
20260903092424 64 254 11.0 16.0 0.00 0.01 0.00 84
20260903092306 64 255 11.0 16.0 0.00 0.01 0.00 84
20260903092203 64 255 11.0 16.0 0.00 0.01 0.00 83
20260903092124 64 254 11.0 16.0 0.00 0.01 0.00 83
20260903092004 64 255 10.0 16.0 0.00 0.01 0.00 84
20260903091903 64 255 10.0 15.0 0.00 0.01 0.00 84
20260903091803 64 255 10.0 15.0 0.00 0.01 0.00 84
20260903091703 64 256 10.0 15.0 0.00 0.01 0.00 84
20260903091603 64 257 11.0 16.0 0.00 0.01 0.00 84
20260903091503 64 258 11.0 21.0 0.00 0.01 0.00 84
20260903091404 64 261 11.0 21.0 0.00 0.01 0.00 84
20260903091304 64 264 12.0 21.0 0.00 0.01 0.00 84
20260903091203 64 265 12.0 21.0 0.00 0.01 0.00 84
20260903091103 64 266 12.0 21.0 0.00 0.01 0.00 84
20260903091003 64 267 12.0 21.0 0.00 0.01 0.00 84
20260903090924 64 268 12.0 21.0 0.00 0.01 0.00 84
20260903090804 64 268 13.0 21.0 0.00 0.01 0.00 83
20260903090703 64 267 13.0 21.0 0.00 0.01 0.00 83
20260903090624 64 265 13.0 21.0 0.00 0.01 0.00 83
20260903090503 64 262 13.0 27.0 0.00 0.01 0.00 83
20260903090403 64 259 13.0 27.0 0.00 0.01 0.00 83
20260903090303 64 255 14.0 27.0 0.00 0.01 0.00 83
20260903090203 64 255 14.0 27.0 0.00 0.01 0.00 83
20260903090003 64 253 15.0 27.0 0.00 0.01 0.00 83
20260903085903 64 250 15.0 27.0 0.00 0.01 0.00 83
20260903085824 64 250 15.0 27.0 0.00 0.01 0.00 83
20260903085703 64 250 15.0 27.0 0.00 0.01 0.00 83
20260903085603 64 250 15.0 27.0 0.00 0.01 0.00 83
20260903085503 64 250 16.0 27.0 0.00 0.01 0.00 83
20260903085403 64 251 16.0 27.0 0.00 0.01 0.00 82
20260903085324 64 250 16.0 27.0 0.00 0.01 0.00 82
20260903085203 64 248 16.0 24.0 0.00 0.01 0.00 83
20260903085103 64 246 16.0 24.0 0.00 0.01 0.00 82
20260903085003 64 245 16.0 24.0 0.00 0.01 0.00 82
20260903084924 64 246 16.0 24.0 0.00 0.01 0.00 82
20260903084803 64 245 15.0 24.0 0.00 0.01 0.00 82
20260903084703 64 245 15.0 24.0 0.00 0.01 0.00 82
20260903084624 64 245 15.0 24.0 0.00 0.01 0.00 82
20260903084503 64 245 15.0 24.0 0.00 0.01 0.00 81
20260903084403 65 244 15.0 24.0 0.00 0.01 0.00 82
20260903084303 65 245 14.0 23.0 0.00 0.01 0.00 82
20260903084203 65 245 14.0 23.0 0.00 0.01 0.00 82
20260903084103 65 246 14.0 22.0 0.00 0.01 0.00 82
20260903084003 65 245 14.0 22.0 0.00 0.01 0.00 82
20260903083924 65 244 14.0 22.0 0.00 0.01 0.00 82
20260903083803 65 243 14.0 22.0 0.00 0.01 0.00 82
20260903083724 65 242 14.0 22.0 0.00 0.01 0.00 82
20260903083603 65 241 13.0 22.0 0.00 0.01 0.00 82
20260903083503 65 239 13.0 22.0 0.00 0.01 0.00 82
20260903083403 65 238 13.0 20.0 0.00 0.01 0.00 82
20260903083324 65 238 13.0 20.0 0.00 0.01 0.00 82
20260903083203 65 236 13.0 20.0 0.00 0.01 0.00 82
20260903083103 65 235 13.0 19.0 0.00 0.01 0.00 82
20260903083003 65 236 13.0 19.0 0.00 0.01 0.00 82
20260903082903 65 237 13.0 20.0 0.00 0.01 0.00 82
20260903082803 65 238 13.0 20.0 0.00 0.01 0.00 82
20260903082703 65 238 13.0 20.0 0.00 0.01 0.00 82
20260903082603 65 239 12.0 20.0 0.00 0.01 0.00 82
20260903082503 65 241 12.0 20.0 0.00 0.01 0.00 82
20260903082403 65 242 11.0 20.0 0.00 0.01 0.00 82
20260903082306 65 244 11.0 20.0 0.00 0.01 0.00 82
20260903082203 65 247 11.0 20.0 0.00 0.01 0.00 82
20260903082103 65 249 11.0 20.0 0.00 0.01 0.00 81
20260903082003 65 251 10.0 20.0 0.00 0.01 0.00 82
20260903081924 65 252 10.0 20.0 0.00 0.01 0.00 82
20260903081824 65 253 10.0 15.0 0.00 0.01 0.00 82
20260903081703 65 253 9.0 16.0 0.00 0.01 0.00 82
20260903081603 65 252 10.0 16.0 0.00 0.01 0.00 82
20260903081503 65 252 9.0 16.0 0.00 0.01 0.00 82
20260903081403 65 252 10.0 16.0 0.00 0.01 0.00 82
20260903081303 65 250 10.0 16.0 0.00 0.01 0.00 82
20260903081203 65 249 10.0 16.0 0.00 0.01 0.00 82
20260903081103 65 248 10.0 16.0 0.00 0.01 0.00 82
20260903081003 65 248 10.0 16.0 0.00 0.01 0.00 82
20260903080904 65 246 10.0 16.0 0.00 0.01 0.00 82
20260903080803 65 246 10.0 16.0 0.00 0.01 0.00 82
20260903080703 65 247 10.0 16.0 0.00 0.01 0.00 82
20260903080603 65 247 10.0 16.0 0.00 0.01 0.00 82
20260903080503 65 246 10.0 16.0 0.00 0.01 0.00 82
20260903080403 65 247 10.0 16.0 0.00 0.01 0.00 83
20260903080303 65 247 9.0 15.0 0.00 0.01 0.00 83
20260903080225 65 248 9.0 15.0 0.00 0.01 0.00 83
20260903080124 65 248 9.0 15.0 0.00 0.01 0.00 83
20260903080003 65 247 9.0 15.0 0.00 0.01 0.00 83
20260903075903 65 248 9.0 14.0 0.00 0.01 0.00 83
20260903075803 65 250 9.0 14.0 0.00 0.01 0.00 83
20260903075703 65 250 9.0 14.0 0.00 0.01 0.00 83
20260903075603 65 252 9.0 14.0 0.00 0.01 0.00 83
20260903075503 65 254 9.0 14.0 0.00 0.01 0.00 83
20260903075403 65 255 9.0 14.0 0.00 0.01 0.00 83
20260903075306 65 257 9.0 13.0 0.00 0.01 0.00 83
20260903075224 65 259 9.0 13.0 0.00 0.01 0.00 83
20260903075103 65 260 8.0 13.0 0.00 0.01 0.00 83
20260903075024 65 261 8.0 13.0 0.00 0.01 0.00 83
20260903074903 65 261 9.0 16.0 0.00 0.01 0.00 83
20260903074803 65 260 9.0 16.0 0.00 0.01 0.00 83
20260903074703 65 260 9.0 16.0 0.00 0.01 0.00 83
20260903074603 65 260 9.0 16.0 0.00 0.01 0.00 83
20260903074503 65 261 9.0 16.0 0.00 0.01 0.00 82
20260903074403 65 262 9.0 16.0 0.00 0.01 0.00 83
20260903074303 65 262 9.0 18.0 0.00 0.01 0.00 83
20260903074203 65 263 9.0 18.0 0.00 0.01 0.00 83
20260903074103 65 266 10.0 18.0 0.00 0.01 0.00 82
20260903074024 65 267 10.0 18.0 0.00 0.01 0.00 82
20260903073903 65 271 10.0 18.0 0.00 0.01 0.00 82
20260903073803 65 273 10.0 18.0 0.00 0.01 0.00 82
20260903073703 65 275 10.0 19.0 0.00 0.01 0.00 82
20260903073603 65 277 11.0 19.0 0.00 0.01 0.00 82
20260903073524 65 278 11.0 19.0 0.00 0.01 0.00 82
20260903073403 65 279 10.0 19.0 0.00 0.01 0.00 82
20260903073303 65 281 11.0 19.0 0.00 0.01 0.00 82
20260903073203 65 282 11.0 19.0 0.00 0.01 0.00 82
20260903073103 65 282 11.0 19.0 0.00 0.01 0.00 82
20260903073024 65 280 11.0 19.0 0.00 0.01 0.00 82
20260903072903 65 277 11.0 21.0 0.00 0.01 0.00 82
20260903072803 65 276 11.0 21.0 0.00 0.01 0.00 82
20260903072703 65 275 11.0 21.0 0.00 0.01 0.00 82
20260903072603 65 273 11.0 21.0 0.00 0.01 0.00 82
20260903072503 65 270 11.0 21.0 0.00 0.01 0.00 82
20260903072424 65 269 11.0 21.0 0.00 0.01 0.00 82
20260903072306 65 268 12.0 21.0 0.00 0.01 0.00 82
20260903072203 65 266 12.0 21.0 0.00 0.01 0.00 82
20260903072103 65 264 12.0 21.0 0.00 0.01 0.00 82
20260903072003 65 264 11.0 21.0 0.00 0.01 0.00 82
20260903071903 65 264 11.0 21.0 0.00 0.01 0.00 83
20260903071803 65 264 11.0 19.0 0.00 0.01 0.00 83
20260903071703 65 265 11.0 19.0 0.00 0.01 0.00 83
20260903071603 64 265 11.0 19.0 0.00 0.01 0.00 83
20260903071503 64 266 11.0 19.0 0.00 0.01 0.00 83
20260903071403 64 268 11.0 19.0 0.00 0.01 0.00 83
20260903071303 64 267 10.0 19.0 0.00 0.01 0.00 83
20260903071203 64 268 10.0 19.0 0.00 0.01 0.00 83
20260903071103 64 267 10.0 19.0 0.00 0.01 0.00 83
20260903071003 64 268 10.0 19.0 0.00 0.01 0.00 83
20260903070903 64 269 10.0 19.0 0.00 0.01 0.00 83
20260903070803 64 267 10.0 19.0 0.00 0.01 0.00 83
20260903070703 64 266 10.0 18.0 0.00 0.01 0.00 83
20260903070603 64 266 10.0 19.0 0.00 0.01 0.00 83
20260903070503 64 264 10.0 19.0 0.00 0.01 0.00 83
20260903070403 64 262 10.0 19.0 0.00 0.01 0.00 83
20260903070303 64 260 10.0 19.0 0.00 0.01 0.00 83
20260903070203 64 260 10.0 19.0 0.00 0.01 0.00 83
20260903070103 64 261 10.0 19.0 0.00 0.01 0.00 83
20260903070024 64 262 10.0 19.0 0.00 0.01 0.00 83
20260903065903 64 262 10.0 19.0 0.00 0.01 0.00 83
20260903065803 64 263 10.0 19.0 0.00 0.01 0.00 83
20260903065724 64 263 10.0 19.0 0.00 0.01 0.00 83
20260903065603 64 261 10.0 16.0 0.00 0.01 0.00 83
20260903065503 64 262 10.0 16.0 0.00 0.01 0.00 83
20260903065403 64 262 10.0 16.0 0.00 0.01 0.00 83
20260903065305 64 261 11.0 16.0 0.00 0.01 0.00 84
20260903065203 64 261 11.0 18.0 0.00 0.01 0.00 84
20260903065103 64 261 11.0 25.0 0.00 0.01 0.00 84
20260903065003 64 260 12.0 25.0 0.00 0.01 0.00 84
20260903064903 64 259 12.0 25.0 0.00 0.01 0.00 84
20260903064803 64 257 12.0 25.0 0.00 0.01 0.00 84
20260903064703 64 256 12.0 25.0 0.00 0.01 0.00 84
20260903064603 64 255 12.0 25.0 0.00 0.01 0.00 84
20260903064503 64 254 12.0 25.0 0.00 0.01 0.00 84
20260903064403 64 254 12.0 25.0 0.00 0.01 0.00 84
20260903064304 64 253 11.0 25.0 0.00 0.01 0.00 84
20260903064224 64 252 11.0 25.0 0.00 0.01 0.00 84
20260903064103 64 250 10.0 16.0 0.00 0.01 0.00 86
20260903064003 64 249 10.0 16.0 0.00 0.01 0.00 86
20260903063903 64 249 10.0 16.0 0.00 0.01 0.00 86
20260903063803 64 249 10.0 16.0 0.00 0.01 0.00 86
20260903063703 64 250 10.0 15.0 0.00 0.01 0.00 86
20260903063625 64 250 10.0 15.0 0.00 0.01 0.00 86
20260903063503 64 251 10.0 14.0 0.00 0.01 0.00 86
20260903063403 64 251 10.0 14.0 0.00 0.01 0.00 86
20260903063303 64 251 10.0 15.0 0.00 0.01 0.00 86
20260903063203 64 250 11.0 15.0 0.00 0.01 0.00 86
20260903063103 64 249 11.0 16.0 0.00 0.01 0.00 86
20260903063003 64 249 11.0 16.0 0.00 0.01 0.00 86
20260903062903 64 249 12.0 20.0 0.00 0.01 0.00 87
20260903062803 64 249 12.0 20.0 0.00 0.01 0.00 87
20260903062703 64 248 12.0 20.0 0.00 0.01 0.00 87
20260903062603 64 249 12.0 20.0 0.00 0.01 0.00 87
20260903062503 64 248 12.0 20.0 0.00 0.01 0.00 86
20260903062403 64 249 11.0 20.0 0.00 0.01 0.00 87
20260903062324 64 249 11.0 20.0 0.00 0.01 0.00 87
20260903062224 64 250 11.0 20.0 0.00 0.01 0.00 87
20260903062103 64 251 11.0 20.0 0.00 0.01 0.00 87
20260903062003 64 250 11.0 20.0 0.00 0.01 0.00 87
20260903061924 64 249 11.0 16.0 0.00 0.01 0.00 87
20260903061803 64 249 10.0 16.0 0.00 0.01 0.00 88
20260903061703 64 248 10.0 15.0 0.00 0.01 0.00 88
20260903061624 64 247 10.0 15.0 0.00 0.01 0.00 88
20260903061503 64 246 10.0 15.0 0.00 0.01 0.00 89
20260903061403 64 245 10.0 13.0 0.00 0.01 0.00 89
20260903061303 64 244 10.0 13.0 0.00 0.01 0.00 89
20260903061203 64 242 10.0 13.0 0.00 0.01 0.00 89
20260903061103 64 242 9.0 13.0 0.00 0.01 0.00 90
20260903061003 64 241 9.0 13.0 0.00 0.01 0.00 90
20260903060903 64 241 9.0 13.0 0.00 0.01 0.00 90
20260903060803 64 241 8.0 13.0 0.00 0.01 0.00 89
20260903060703 64 242 8.0 13.0 0.00 0.01 0.00 90
20260903060624 64 242 8.0 13.0 0.00 0.01 0.00 90
20260903060503 64 241 8.0 12.0 0.00 0.01 0.00 89
20260903060403 64 241 8.0 12.0 0.00 0.01 0.00 89
20260903060303 64 241 8.0 12.0 0.00 0.01 0.00 89
20260903060203 64 241 8.0 12.0 0.00 0.01 0.00 89
20260903060103 64 242 8.0 12.0 0.00 0.01 0.00 89
20260903060003 64 242 8.0 15.0 0.00 0.01 0.00 89
20260903055925 64 242 8.0 15.0 0.00 0.01 0.00 89
20260903055803 64 243 8.0 15.0 0.00 0.01 0.00 89
20260903055703 64 243 9.0 15.0 0.00 0.01 0.00 89
20260903055624 64 244 9.0 15.0 0.00 0.01 0.00 89
20260903055503 64 246 9.0 15.0 0.00 0.01 0.00 88
20260903055424 64 248 9.0 15.0 0.00 0.01 0.00 88
20260903055306 64 253 9.0 15.0 0.00 0.01 0.00 88
20260903055225 64 254 9.0 15.0 0.00 0.01 0.00 88
20260903055103 64 256 9.0 15.0 0.00 0.01 0.00 88
20260903055003 64 259 9.0 15.0 0.00 0.01 0.00 88
20260903054903 64 259 9.0 15.0 0.00 0.01 0.00 88
20260903054824 64 259 9.0 15.0 0.00 0.01 0.00 88
20260903054703 64 259 10.0 16.0 0.00 0.01 0.00 88
20260903054603 64 259 10.0 16.0 0.00 0.01 0.00 88
20260903054503 64 258 10.0 16.0 0.00 0.01 0.00 88
20260903054403 64 255 10.0 16.0 0.00 0.01 0.00 88
20260903054324 64 254 10.0 16.0 0.00 0.01 0.00 88
20260903054224 64 253 10.0 16.0 0.00 0.01 0.00 88
20260903054103 64 251 10.0 16.0 0.00 0.01 0.00 88
20260903054003 64 249 10.0 16.0 0.00 0.01 0.00 89
20260903053903 64 249 10.0 16.0 0.00 0.01 0.00 89
20260903053803 64 249 10.0 16.0 0.00 0.01 0.00 89
20260903053724 64 248 10.0 16.0 0.00 0.01 0.00 89
20260903053603 64 247 10.0 15.0 0.00 0.01 0.00 89
20260903053503 64 247 10.0 15.0 0.00 0.01 0.00 89
20260903053424 64 245 10.0 15.0 0.00 0.01 0.00 89
20260903053303 64 246 10.0 16.0 0.00 0.01 0.00 89
20260903053203 64 244 10.0 16.0 0.00 0.01 0.00 89
20260903053103 64 245 10.0 16.0 0.00 0.01 0.00 89
20260903053005 64 245 10.0 16.0 0.00 0.01 0.00 89
20260903052903 64 245 10.0 16.0 0.00 0.01 0.00 89
20260903052824 64 245 10.0 16.0 0.00 0.01 0.00 89
20260903052703 64 245 10.0 16.0 0.00 0.01 0.00 89
20260903052603 64 245 10.0 16.0 0.00 0.01 0.00 89
20260903052503 64 246 10.0 16.0 0.00 0.01 0.00 90
20260903052403 64 246 10.0 16.0 0.00 0.01 0.00 90
20260903052306 64 244 10.0 15.0 0.00 0.01 0.00 90
20260903052203 64 245 10.0 15.0 0.00 0.01 0.00 90
20260903052103 64 244 10.0 15.0 0.00 0.01 0.00 90
20260903052003 64 243 10.0 15.0 0.00 0.01 0.00 90
20260903051904 64 243 10.0 14.0 0.00 0.01 0.00 90
20260903051824 64 243 10.0 14.0 0.00 0.01 0.00 90
20260903051724 64 242 10.0 14.0 0.00 0.01 0.00 90
20260903051624 64 242 9.0 14.0 0.00 0.01 0.00 90
20260903051504 64 242 10.0 14.0 0.00 0.01 0.00 90
20260903051405 64 241 9.0 14.0 0.00 0.01 0.00 90
20260903051303 64 242 9.0 14.0 0.00 0.01 0.00 91
20260903051203 64 242 9.0 14.0 0.00 0.01 0.00 91
20260903051103 64 242 9.0 13.0 0.00 0.01 0.00 91
20260903051003 64 241 9.0 13.0 0.00 0.01 0.00 91
20260903050924 64 242 9.0 13.0 0.00 0.01 0.00 91
20260903050805 64 242 10.0 13.0 0.00 0.01 0.00 91
20260903050703 64 242 10.0 14.0 0.00 0.01 0.00 91
20260903050604 64 241 10.0 14.0 0.00 0.01 0.00 91
20260903050524 64 241 10.0 14.0 0.00 0.01 0.00 91
20260903050403 64 241 10.0 14.0 0.00 0.01 0.00 91
20260903050303 64 242 10.0 14.0 0.00 0.01 0.00 91
20260903050203 64 242 10.0 14.0 0.00 0.01 0.00 91
20260903050003 64 242 10.0 14.0 0.00 0.01 0.00 91
20260903045903 64 241 10.0 14.0 0.00 0.01 0.00 91
20260903045803 64 241 10.0 14.0 0.00 0.01 0.00 91
20260903045724 64 241 10.0 14.0 0.00 0.01 0.00 91
20260903045624 64 241 10.0 14.0 0.00 0.01 0.00 91
20260903045524 64 241 9.0 14.0 0.00 0.01 0.00 91
20260903045403 64 241 9.0 13.0 0.00 0.01 0.00 91
20260903045306 64 241 9.0 13.0 0.00 0.01 0.00 91
20260903045203 64 241 9.0 13.0 0.00 0.01 0.00 91
20260903045103 64 240 9.0 13.0 0.00 0.01 0.00 91
20260903045003 64 240 9.0 13.0 0.00 0.01 0.00 91
20260903044924 64 240 9.0 13.0 0.00 0.01 0.00 91
20260903044824 64 241 9.0 13.0 0.00 0.01 0.00 91
20260903044703 63 241 9.0 13.0 0.00 0.01 0.00 91
20260903044624 64 241 9.0 13.0 0.00 0.01 0.00 91
20260903044503 63 240 9.0 13.0 0.00 0.01 0.00 91
20260903044424 63 241 9.0 13.0 0.00 0.01 0.00 91
20260903044303 63 240 9.0 12.0 0.00 0.01 0.00 91
20260903044203 63 240 8.0 12.0 0.00 0.01 0.00 91
20260903044104 63 240 8.0 12.0 0.00 0.01 0.00 91
20260903044003 64 240 8.0 12.0 0.00 0.01 0.00 91
20260903043903 64 240 8.0 12.0 0.00 0.01 0.00 91
20260903043803 64 239 8.0 12.0 0.00 0.01 0.00 91
20260903043703 64 240 8.0 12.0 0.00 0.01 0.00 91
20260903043603 64 240 8.0 12.0 0.00 0.01 0.00 91
20260903043503 64 241 8.0 12.0 0.00 0.01 0.00 91
20260903043404 64 242 7.0 12.0 0.00 0.01 0.00 91
20260903043324 64 243 7.0 11.0 0.00 0.01 0.00 91
20260903043203 64 244 7.0 11.0 0.00 0.01 0.00 91
20260903043103 64 246 7.0 11.0 0.00 0.01 0.00 91
20260903043003 64 247 7.0 11.0 0.00 0.01 0.00 91
20260903042903 64 247 7.0 11.0 0.00 0.01 0.00 91
20260903042824 64 248 7.0 11.0 0.00 0.01 0.00 91
20260903042703 64 248 8.0 11.0 0.00 0.01 0.00 91
20260903042624 64 248 8.0 11.0 0.00 0.01 0.00 91
20260903042503 64 249 8.0 11.0 0.00 0.01 0.00 91
20260903042403 64 248 8.0 12.0 0.00 0.01 0.00 91
20260903042324 64 248 8.0 12.0 0.00 0.01 0.00 91
20260903042224 64 247 9.0 14.0 0.00 0.01 0.00 91
20260903042103 64 246 9.0 14.0 0.00 0.01 0.00 91
20260903042003 64 246 9.0 14.0 0.00 0.01 0.00 91
20260903041903 64 247 9.0 15.0 0.00 0.01 0.00 91
20260903041803 63 246 10.0 15.0 0.00 0.01 0.00 91
20260903041703 63 246 10.0 15.0 0.00 0.01 0.00 91
20260903041624 63 245 10.0 15.0 0.00 0.01 0.00 91
20260903041504 63 244 10.0 15.0 0.00 0.01 0.00 92
20260903041404 63 244 10.0 15.0 0.00 0.01 0.00 92
20260903041303 63 243 10.0 15.0 0.00 0.01 0.00 92
20260903041203 63 243 10.0 15.0 0.00 0.01 0.00 92
20260903041103 63 243 10.0 15.0 0.00 0.01 0.00 92
20260903041003 63 242 10.0 15.0 0.00 0.01 0.00 92
20260903040903 63 241 10.0 15.0 0.00 0.01 0.00 92
20260903040804 63 241 10.0 15.0 0.00 0.01 0.00 92
20260903040703 63 241 10.0 15.0 0.00 0.01 0.00 92
20260903040603 63 241 10.0 15.0 0.00 0.01 0.00 92
20260903040503 63 241 10.0 15.0 0.00 0.01 0.00 92
20260903040403 63 241 10.0 13.0 0.00 0.01 0.00 92